Wetterdaten: Samstag, 07.05.2016
Datum Zeit Temp. A. Feuchte A. Luftdruck Regen Wind Richtung Richtung Sonnenschein ET UV Solar Taupunkt Windchill Windben Empfang
07.05.2016 00:00 12,3 C 69 % 1013,7 hPa 0,0 l/m 8,0 km/h (2 Bft) O-NO 62 0 min 0,000 mm 0,0 UV-I 0 W/m 6,8 C 11,3 C 9,7 km/h (2 Bft) 95,83 %
07.05.2016 00:02 12,3 C 69 % 1013,8 hPa 0,0 l/m 8,5 km/h (2 Bft) O-NO 61 0 min 0,000 mm 0,0 UV-I 0 W/m 6,8 C 11,0 C 11,3 km/h (2 Bft) 97,83 %
07.05.2016 00:03 12,3 C 69 % 1013,8 hPa 0,0 l/m 8,1 km/h (2 Bft) O-NO 65 0 min 0,000 mm 0,0 UV-I 0 W/m 6,8 C 11,2 C 9,7 km/h (2 Bft) 100,00 %
07.05.2016 00:04 12,3 C 69 % 1013,8 hPa 0,0 l/m 7,9 km/h (2 Bft) NO 56 0 min 0,000 mm 0,0 UV-I 0 W/m 6,8 C 11,3 C 9,7 km/h (2 Bft) 100,00 %
07.05.2016 00:05 12,3 C 69 % 1013,8 hPa 0,0 l/m 7,5 km/h (2 Bft) NO 52 0 min 0,000 mm 0,0 UV-I 0 W/m 6,8 C 11,6 C 9,7 km/h (2 Bft) 100,00 %
07.05.2016 00:06 12,3 C 69 % 1013,8 hPa 0,0 l/m 8,7 km/h (2 Bft) O-NO 66 0 min 0,000 mm 0,0 UV-I 0 W/m 6,8 C 10,8 C 14,5 km/h (3 Bft) 100,00 %
07.05.2016 00:07 12,3 C 70 % 1013,8 hPa 0,0 l/m 8,4 km/h (2 Bft) NO 45 0 min 0,000 mm 0,0 UV-I 0 W/m 7,0 C 11,0 C 12,9 km/h (3 Bft) 100,00 %
07.05.2016 00:08 12,3 C 70 % 1013,8 hPa 0,0 l/m 6,4 km/h (2 Bft) O-NO 65 0 min 0,000 mm 0,0 UV-I 0 W/m 7,0 C 12,3 C 8,0 km/h (2 Bft) 100,00 %
07.05.2016 00:09 12,3 C 70 % 1013,8 hPa 0,0 l/m 8,2 km/h (2 Bft) NO 55 0 min 0,000 mm 0,0 UV-I 0 W/m 7,0 C 11,1 C 9,7 km/h (2 Bft) 100,00 %
07.05.2016 00:10 12,3 C 70 % 1013,8 hPa 0,0 l/m 7,3 km/h (2 Bft) O-NO 64 0 min 0,000 mm 0,0 UV-I 0 W/m 7,0 C 11,7 C 11,3 km/h (2 Bft) 92,31 %
07.05.2016 00:11 12,2 C 70 % 1013,8 hPa 0,0 l/m 7,2 km/h (2 Bft) O 80 0 min 0,000 mm 0,0 UV-I 0 W/m 6,9 C 11,7 C 12,9 km/h (3 Bft) 96,15 %
07.05.2016 00:12 12,2 C 70 % 1013,8 hPa 0,0 l/m 7,0 km/h (2 Bft) NO 46 0 min 0,000 mm 0,0 UV-I 0 W/m 6,9 C 11,8 C 11,3 km/h (2 Bft) 100,00 %
07.05.2016 00:13 12,2 C 70 % 1013,8 hPa 0,0 l/m 8,2 km/h (2 Bft) NO 53 0 min 0,000 mm 0,0 UV-I 0 W/m 6,9 C 11,0 C 9,7 km/h (2 Bft) 95,65 %
07.05.2016 00:14 12,2 C 70 % 1013,8 hPa 0,0 l/m 7,2 km/h (2 Bft) NO 54 0 min 0,000 mm 0,0 UV-I 0 W/m 6,9 C 11,7 C 11,3 km/h (2 Bft) 100,00 %
07.05.2016 00:15 12,1 C 70 % 1013,8 hPa 0,0 l/m 7,4 km/h (2 Bft) O-NO 60 0 min 0,000 mm 0,0 UV-I 0 W/m 6,8 C 11,4 C 12,9 km/h (3 Bft) 100,00 %
07.05.2016 00:16 12,1 C 70 % 1013,7 hPa 0,0 l/m 8,4 km/h (2 Bft) NO 55 0 min 0,000 mm 0,0 UV-I 0 W/m 6,8 C 10,8 C 12,9 km/h (3 Bft) 100,00 %
07.05.2016 00:17 12,1 C 70 % 1013,7 hPa 0,0 l/m 7,8 km/h (2 Bft) NO 51 0 min 0,000 mm 0,0 UV-I 0 W/m 6,8 C 11,2 C 14,5 km/h (3 Bft) 100,00 %
07.05.2016 00:18 12,1 C 71 % 1013,7 hPa 0,0 l/m 8,0 km/h (2 Bft) O-NO 61 0 min 0,000 mm 0,0 UV-I 0 W/m 7,0 C 11,1 C 14,5 km/h (3 Bft) 100,00 %
07.05.2016 00:19 12,1 C 71 % 1013,7 hPa 0,0 l/m 7,4 km/h (2 Bft) O-NO 57 0 min 0,000 mm 0,0 UV-I 0 W/m 7,0 C 11,4 C 9,7 km/h (2 Bft) 100,00 %
07.05.2016 00:20 12,1 C 71 % 1013,7 hPa 0,0 l/m 7,0 km/h (2 Bft) O-NO 63 0 min 0,000 mm 0,0 UV-I 0 W/m 7,0 C 11,7 C 9,7 km/h (2 Bft) 95,65 %
07.05.2016 00:21 12,1 C 71 % 1013,7 hPa 0,0 l/m 6,9 km/h (2 Bft) NO 49 0 min 0,000 mm 0,0 UV-I 0 W/m 7,0 C 11,8 C 11,3 km/h (2 Bft) 100,00 %
07.05.2016 00:22 12,0 C 71 % 1013,7 hPa 0,0 l/m 6,6 km/h (2 Bft) O-NO 59 0 min 0,000 mm 0,0 UV-I 0 W/m 6,9 C 11,9 C 9,7 km/h (2 Bft) 100,00 %
07.05.2016 00:23 12,1 C 71 % 1013,7 hPa 0,0 l/m 8,6 km/h (2 Bft) O-NO 60 0 min 0,000 mm 0,0 UV-I 0 W/m 7,0 C 10,7 C 11,3 km/h (2 Bft) 100,00 %
07.05.2016 00:24 12,0 C 71 % 1013,7 hPa 0,0 l/m 8,9 km/h (2 Bft) NO 49 0 min 0,000 mm 0,0 UV-I 0 W/m 6,9 C 10,4 C 12,9 km/h (3 Bft) 100,00 %
07.05.2016 00:25 12,1 C 71 % 1013,7 hPa 0,0 l/m 9,2 km/h (2 Bft) NO 53 0 min 0,000 mm 0,0 UV-I 0 W/m 7,0 C 10,3 C 12,9 km/h (3 Bft) 95,83 %
07.05.2016 00:26 12,1 C 71 % 1013,7 hPa 0,0 l/m 8,5 km/h (2 Bft) O-NO 57 0 min 0,000 mm 0,0 UV-I 0 W/m 7,0 C 10,8 C 11,3 km/h (2 Bft) 100,00 %
07.05.2016 00:27 12,1 C 70 % 1013,7 hPa 0,0 l/m 8,9 km/h (2 Bft) O-NO 60 0 min 0,000 mm 0,0 UV-I 0 W/m 6,8 C 10,5 C 12,9 km/h (3 Bft) 100,00 %
07.05.2016 00:28 12,1 C 70 % 1013,7 hPa 0,0 l/m 9,5 km/h (2 Bft) NO 46 0 min 0,000 mm 0,0 UV-I 0 W/m 6,8 C 10,2 C 11,3 km/h (2 Bft) 100,00 %
07.05.2016 00:29 12,1 C 70 % 1013,7 hPa 0,0 l/m 10,8 km/h (2 Bft) O-NO 61 0 min 0,000 mm 0,0 UV-I 0 W/m 6,8 C 9,5 C 14,5 km/h (3 Bft) 95,83 %
07.05.2016 00:30 12,1 C 70 % 1013,7 hPa 0,0 l/m 8,6 km/h (2 Bft) NO 51 0 min 0,000 mm 0,0 UV-I 0 W/m 6,8 C 10,7 C 12,9 km/h (3 Bft) 100,00 %
07.05.2016 00:31 12,1 C 70 % 1013,7 hPa 0,0 l/m 11,5 km/h (2 Bft) O-NO 59 0 min 0,000 mm 0,0 UV-I 0 W/m 6,8 C 9,2 C 14,5 km/h (3 Bft) 96,30 %
07.05.2016 00:32 12,1 C 70 % 1013,7 hPa 0,0 l/m 10,7 km/h (2 Bft) O-NO 65 0 min 0,000 mm 0,0 UV-I 0 W/m 6,8 C 9,6 C 14,5 km/h (3 Bft) 100,00 %
07.05.2016 00:33 12,1 C 70 % 1013,7 hPa 0,0 l/m 9,2 km/h (2 Bft) NO 51 0 min 0,000 mm 0,0 UV-I 0 W/m 6,8 C 10,3 C 14,5 km/h (3 Bft) 92,31 %
07.05.2016 00:34 12,1 C 70 % 1013,7 hPa 0,0 l/m 10,4 km/h (2 Bft) NO 50 0 min 0,000 mm 0,0 UV-I 0 W/m 6,8 C 9,7 C 16,1 km/h (3 Bft) 96,55 %
07.05.2016 00:35 12,1 C 70 % 1013,7 hPa 0,0 l/m 11,3 km/h (2 Bft) O-NO 57 0 min 0,000 mm 0,0 UV-I 0 W/m 6,8 C 9,3 C 16,1 km/h (3 Bft) 100,00 %
07.05.2016 00:36 12,1 C 70 % 1013,7 hPa 0,0 l/m 9,0 km/h (2 Bft) O-NO 64 0 min 0,000 mm 0,0 UV-I 0 W/m 6,8 C 10,5 C 12,9 km/h (3 Bft) 95,65 %
07.05.2016 00:37 12,1 C 70 % 1013,7 hPa 0,0 l/m 10,0 km/h (2 Bft) NO 54 0 min 0,000 mm 0,0 UV-I 0 W/m 6,8 C 9,9 C 14,5 km/h (3 Bft) 100,00 %
07.05.2016 00:38 12,1 C 71 % 1013,7 hPa 0,0 l/m 10,3 km/h (2 Bft) NO 49 0 min 0,000 mm 0,0 UV-I 0 W/m 7,0 C 9,8 C 14,5 km/h (3 Bft) 95,83 %
07.05.2016 00:39 12,1 C 71 % 1013,7 hPa 0,0 l/m 9,5 km/h (2 Bft) O-NO 65 0 min 0,000 mm 0,0 UV-I 0 W/m 7,0 C 10,2 C 14,5 km/h (3 Bft) 100,00 %
07.05.2016 00:40 12,1 C 71 % 1013,8 hPa 0,0 l/m 10,0 km/h (2 Bft) NO 56 0 min 0,000 mm 0,0 UV-I 0 W/m 7,0 C 9,9 C 14,5 km/h (3 Bft) 95,83 %
07.05.2016 00:41 12,1 C 71 % 1013,8 hPa 0,0 l/m 8,0 km/h (2 Bft) O-NO 65 0 min 0,000 mm 0,0 UV-I 0 W/m 7,0 C 11,1 C 14,5 km/h (3 Bft) 95,65 %
07.05.2016 00:42 12,0 C 71 % 1013,8 hPa 0,0 l/m 8,6 km/h (2 Bft) O-NO 67 0 min 0,000 mm 0,0 UV-I 0 W/m 6,9 C 10,6 C 12,9 km/h (3 Bft) 100,00 %
07.05.2016 00:43 11,9 C 71 % 1013,7 hPa 0,0 l/m 8,9 km/h (2 Bft) O-NO 68 0 min 0,000 mm 0,0 UV-I 0 W/m 6,8 C 10,3 C 12,9 km/h (3 Bft) 95,65 %
07.05.2016 00:44 11,9 C 72 % 1013,7 hPa 0,0 l/m 11,6 km/h (2 Bft) O-NO 66 0 min 0,000 mm 0,0 UV-I 0 W/m 7,0 C 8,9 C 16,1 km/h (3 Bft) 95,83 %
07.05.2016 00:45 11,8 C 72 % 1013,8 hPa 0,0 l/m 10,1 km/h (2 Bft) O-NO 65 0 min 0,000 mm 0,0 UV-I 0 W/m 6,9 C 9,5 C 12,9 km/h (3 Bft) 95,65 %
07.05.2016 00:46 11,8 C 72 % 1013,7 hPa 0,0 l/m 10,1 km/h (2 Bft) NO 55 0 min 0,000 mm 0,0 UV-I 0 W/m 6,9 C 9,5 C 14,5 km/h (3 Bft) 100,00 %
07.05.2016 00:47 11,8 C 72 % 1013,7 hPa 0,0 l/m 9,2 km/h (2 Bft) O-NO 69 0 min 0,000 mm 0,0 UV-I 0 W/m 6,9 C 10,0 C 12,9 km/h (3 Bft) 92,31 %
07.05.2016 00:48 11,8 C 72 % 1013,7 hPa 0,0 l/m 11,5 km/h (2 Bft) O-NO 78 0 min 0,000 mm 0,0 UV-I 0 W/m 6,9 C 8,8 C 16,1 km/h (3 Bft) 100,00 %
07.05.2016 00:49 11,7 C 72 % 1013,7 hPa 0,0 l/m 11,3 km/h (2 Bft) NO 53 0 min 0,000 mm 0,0 UV-I 0 W/m 6,8 C 8,8 C 14,5 km/h (3 Bft) 96,15 %
07.05.2016 00:50 11,7 C 72 % 1013,7 hPa 0,0 l/m 11,1 km/h (2 Bft) O-NO 69 0 min 0,000 mm 0,0 UV-I 0 W/m 6,8 C 8,9 C 14,5 km/h (3 Bft) 95,83 %
07.05.2016 00:51 11,7 C 72 % 1013,7 hPa 0,0 l/m 10,5 km/h (2 Bft) O-NO 70 0 min 0,000 mm 0,0 UV-I 0 W/m 6,8 C 9,2 C 14,5 km/h (3 Bft) 100,00 %
07.05.2016 00:52 11,7 C 72 % 1013,7 hPa 0,0 l/m 11,0 km/h (2 Bft) O-NO 68 0 min 0,000 mm 0,0 UV-I 0 W/m 6,8 C 9,0 C 14,5 km/h (3 Bft) 95,83 %
07.05.2016 00:53 11,7 C 72 % 1013,7 hPa 0,0 l/m 11,8 km/h (2 Bft) O-NO 73 0 min 0,000 mm 0,0 UV-I 0 W/m 6,8 C 8,6 C 16,1 km/h (3 Bft) 100,00 %
07.05.2016 00:54 11,7 C 72 % 1013,7 hPa 0,0 l/m 12,4 km/h (3 Bft) O-NO 59 0 min 0,000 mm 0,0 UV-I 0 W/m 6,8 C 8,3 C 16,1 km/h (3 Bft) 95,83 %
07.05.2016 00:55 11,7 C 73 % 1013,7 hPa 0,0 l/m 11,1 km/h (2 Bft) NO 50 0 min 0,000 mm 0,0 UV-I 0 W/m 7,0 C 8,9 C 14,5 km/h (3 Bft) 100,00 %
07.05.2016 00:56 11,7 C 73 % 1013,7 hPa 0,0 l/m 9,0 km/h (2 Bft) NO 56 0 min 0,000 mm 0,0 UV-I 0 W/m 7,0 C 10,0 C 12,9 km/h (3 Bft) 91,67 %
07.05.2016 00:57 11,6 C 73 % 1013,6 hPa 0,0 l/m 9,4 km/h (2 Bft) O-NO 69 0 min 0,000 mm 0,0 UV-I 0 W/m 6,9 C 9,7 C 12,9 km/h (3 Bft) 100,00 %
07.05.2016 00:58 11,6 C 73 % 1013,6 hPa 0,0 l/m 7,4 km/h (2 Bft) O-NO 60 0 min 0,000 mm 0,0 UV-I 0 W/m 6,9 C 10,9 C 12,9 km/h (3 Bft) 91,30 %
07.05.2016 00:59 11,6 C 73 % 1013,7 hPa 0,0 l/m 8,5 km/h (2 Bft) O-NO 75 0 min 0,000 mm 0,0 UV-I 0 W/m 6,9 C 10,2 C 12,9 km/h (3 Bft) 95,83 %
07.05.2016 01:00 11,6 C 73 % 1013,6 hPa 0,0 l/m 8,5 km/h (2 Bft) O-NO 58 0 min 0,025 mm 0,0 UV-I 0 W/m 6,9 C 10,2 C 11,3 km/h (2 Bft) 100,00 %
07.05.2016 01:01 11,6 C 73 % 1013,7 hPa 0,0 l/m 6,8 km/h (2 Bft) O-NO 68 0 min 0,000 mm 0,0 UV-I 0 W/m 6,9 C 11,3 C 12,9 km/h (3 Bft) 100,00 %
07.05.2016 01:02 11,6 C 73 % 1013,6 hPa 0,0 l/m 6,8 km/h (2 Bft) O-NO 63 0 min 0,000 mm 0,0 UV-I 0 W/m 6,9 C 11,3 C 9,7 km/h (2 Bft) 96,15 %
07.05.2016 01:03 11,6 C 73 % 1013,6 hPa 0,0 l/m 7,9 km/h (2 Bft) O 80 0 min 0,000 mm 0,0 UV-I 0 W/m 6,9 C 10,6 C 11,3 km/h (2 Bft) 100,00 %
07.05.2016 01:04 11,6 C 73 % 1013,6 hPa 0,0 l/m 6,6 km/h (2 Bft) O-NO 64 0 min 0,000 mm 0,0 UV-I 0 W/m 6,9 C 11,5 C 9,7 km/h (2 Bft) 100,00 %
07.05.2016 01:05 11,6 C 73 % 1013,6 hPa 0,0 l/m 6,2 km/h (2 Bft) NO 52 0 min 0,000 mm 0,0 UV-I 0 W/m 6,9 C 11,6 C 9,7 km/h (2 Bft) 95,83 %
07.05.2016 01:06 11,6 C 73 % 1013,6 hPa 0,0 l/m 6,7 km/h (2 Bft) O-NO 66 0 min 0,000 mm 0,0 UV-I 0 W/m 6,9 C 11,4 C 8,0 km/h (2 Bft) 100,00 %
07.05.2016 01:07 11,6 C 73 % 1013,6 hPa 0,0 l/m 6,7 km/h (2 Bft) O-NO 78 0 min 0,000 mm 0,0 UV-I 0 W/m 6,9 C 11,4 C 9,7 km/h (2 Bft) 100,00 %
07.05.2016 01:08 11,6 C 73 % 1013,6 hPa 0,0 l/m 6,1 km/h (2 Bft) NO 49 0 min 0,000 mm 0,0 UV-I 0 W/m 6,9 C 11,6 C 8,0 km/h (2 Bft) 100,00 %
07.05.2016 01:09 11,6 C 73 % 1013,6 hPa 0,0 l/m 5,3 km/h (1 Bft) O-NO 60 0 min 0,000 mm 0,0 UV-I 0 W/m 6,9 C 11,6 C 8,0 km/h (2 Bft) 100,00 %
07.05.2016 01:10 11,5 C 73 % 1013,6 hPa 0,0 l/m 6,4 km/h (2 Bft) O-NO 67 0 min 0,000 mm 0,0 UV-I 0 W/m 6,8 C 11,5 C 8,0 km/h (2 Bft) 100,00 %
07.05.2016 01:11 11,5 C 73 % 1013,6 hPa 0,0 l/m 6,2 km/h (2 Bft) NO 50 0 min 0,000 mm 0,0 UV-I 0 W/m 6,8 C 11,5 C 8,0 km/h (2 Bft) 100,00 %
07.05.2016 01:12 11,5 C 73 % 1013,6 hPa 0,0 l/m 6,2 km/h (2 Bft) O-NO 69 0 min 0,000 mm 0,0 UV-I 0 W/m 6,8 C 11,5 C 11,3 km/h (2 Bft) 100,00 %
07.05.2016 01:13 11,4 C 73 % 1013,6 hPa 0,0 l/m 5,1 km/h (1 Bft) O-NO 65 0 min 0,000 mm 0,0 UV-I 0 W/m 6,7 C 11,4 C 6,4 km/h (2 Bft) 100,00 %
07.05.2016 01:14 11,4 C 73 % 1013,6 hPa 0,0 l/m 6,4 km/h (2 Bft) O-NO 63 0 min 0,000 mm 0,0 UV-I 0 W/m 6,7 C 11,4 C 8,0 km/h (2 Bft) 95,65 %
07.05.2016 01:15 11,4 C 74 % 1013,5 hPa 0,0 l/m 6,4 km/h (2 Bft) O-NO 61 0 min 0,000 mm 0,0 UV-I 0 W/m 6,9 C 11,4 C 8,0 km/h (2 Bft) 100,00 %
07.05.2016 01:16 11,3 C 74 % 1013,5 hPa 0,0 l/m 6,4 km/h (2 Bft) O-NO 63 0 min 0,000 mm 0,0 UV-I 0 W/m 6,8 C 11,3 C 9,7 km/h (2 Bft) 100,00 %
07.05.2016 01:17 11,3 C 74 % 1013,5 hPa 0,0 l/m 8,2 km/h (2 Bft) O-NO 73 0 min 0,000 mm 0,0 UV-I 0 W/m 6,8 C 10,1 C 12,9 km/h (3 Bft) 100,00 %
07.05.2016 01:18 11,3 C 74 % 1013,5 hPa 0,0 l/m 7,5 km/h (2 Bft) O 80 0 min 0,000 mm 0,0 UV-I 0 W/m 6,8 C 10,5 C 11,3 km/h (2 Bft) 100,00 %
07.05.2016 01:19 11,3 C 74 % 1013,5 hPa 0,0 l/m 5,7 km/h (1 Bft) O 82 0 min 0,000 mm 0,0 UV-I 0 W/m 6,8 C 11,3 C 9,7 km/h (2 Bft) 95,65 %
07.05.2016 01:20 11,3 C 74 % 1013,5 hPa 0,0 l/m 6,4 km/h (2 Bft) O-NO 71 0 min 0,000 mm 0,0 UV-I 0 W/m 6,8 C 11,3 C 8,0 km/h (2 Bft) 100,00 %
07.05.2016 01:21 11,3 C 74 % 1013,5 hPa 0,0 l/m 7,2 km/h (2 Bft) O-NO 64 0 min 0,000 mm 0,0 UV-I 0 W/m 6,8 C 10,8 C 11,3 km/h (2 Bft) 100,00 %
07.05.2016 01:22 11,3 C 74 % 1013,5 hPa 0,0 l/m 5,4 km/h (1 Bft) O-NO 74 0 min 0,000 mm 0,0 UV-I 0 W/m 6,8 C 11,3 C 6,4 km/h (2 Bft) 100,00 %
07.05.2016 01:23 11,3 C 74 % 1013,4 hPa 0,0 l/m 7,1 km/h (2 Bft) O-NO 78 0 min 0,000 mm 0,0 UV-I 0 W/m 6,8 C 10,8 C 9,7 km/h (2 Bft) 100,00 %
07.05.2016 01:24 11,3 C 74 % 1013,5 hPa 0,0 l/m 7,4 km/h (2 Bft) O-NO 62 0 min 0,000 mm 0,0 UV-I 0 W/m 6,8 C 10,6 C 11,3 km/h (2 Bft) 100,00 %
07.05.2016 01:25 11,3 C 74 % 1013,5 hPa 0,0 l/m 8,0 km/h (2 Bft) O-NO 78 0 min 0,000 mm 0,0 UV-I 0 W/m 6,8 C 10,2 C 12,9 km/h (3 Bft) 96,15 %
07.05.2016 01:26 11,3 C 74 % 1013,5 hPa 0,0 l/m 7,9 km/h (2 Bft) O-NO 64 0 min 0,000 mm 0,0 UV-I 0 W/m 6,8 C 10,3 C 12,9 km/h (3 Bft) 100,00 %
07.05.2016 01:27 11,3 C 74 % 1013,5 hPa 0,0 l/m 8,1 km/h (2 Bft) O 79 0 min 0,000 mm 0,0 UV-I 0 W/m 6,8 C 10,2 C 16,1 km/h (3 Bft) 100,00 %
07.05.2016 01:28 11,3 C 74 % 1013,5 hPa 0,0 l/m 13,1 km/h (3 Bft) O 80 0 min 0,000 mm 0,0 UV-I 0 W/m 6,8 C 7,5 C 16,1 km/h (3 Bft) 100,00 %
07.05.2016 01:29 11,3 C 74 % 1013,5 hPa 0,0 l/m 10,5 km/h (2 Bft) O-NO 63 0 min 0,000 mm 0,0 UV-I 0 W/m 6,8 C 8,8 C 16,1 km/h (3 Bft) 100,00 %
07.05.2016 01:30 11,4 C 73 % 1013,5 hPa 0,0 l/m 11,3 km/h (2 Bft) O-NO 66 0 min 0,000 mm 0,0 UV-I 0 W/m 6,7 C 8,5 C 17,7 km/h (3 Bft) 100,00 %
07.05.2016 01:31 11,4 C 73 % 1013,5 hPa 0,0 l/m 7,8 km/h (2 Bft) O-NO 78 0 min 0,000 mm 0,0 UV-I 0 W/m 6,7 C 10,5 C 12,9 km/h (3 Bft) 95,65 %
07.05.2016 01:32 11,4 C 73 % 1013,5 hPa 0,0 l/m 9,3 km/h (2 Bft) O-NO 60 0 min 0,000 mm 0,0 UV-I 0 W/m 6,7 C 9,5 C 14,5 km/h (3 Bft) 95,83 %
07.05.2016 01:33 11,5 C 73 % 1013,4 hPa 0,0 l/m 9,7 km/h (2 Bft) O-NO 60 0 min 0,000 mm 0,0 UV-I 0 W/m 6,8 C 9,4 C 16,1 km/h (3 Bft) 100,00 %
07.05.2016 01:34 11,5 C 73 % 1013,4 hPa 0,0 l/m 11,6 km/h (2 Bft) O-NO 63 0 min 0,000 mm 0,0 UV-I 0 W/m 6,8 C 8,4 C 16,1 km/h (3 Bft) 100,00 %
07.05.2016 01:35 11,6 C 73 % 1013,4 hPa 0,0 l/m 10,6 km/h (2 Bft) O-NO 63 0 min 0,000 mm 0,0 UV-I 0 W/m 6,9 C 9,0 C 14,5 km/h (3 Bft) 100,00 %
07.05.2016 01:36 11,6 C 73 % 1013,4 hPa 0,0 l/m 10,9 km/h (2 Bft) O-NO 72 0 min 0,000 mm 0,0 UV-I 0 W/m 6,9 C 8,9 C 14,5 km/h (3 Bft) 100,00 %
07.05.2016 01:37 11,6 C 73 % 1013,4 hPa 0,0 l/m 8,6 km/h (2 Bft) O-NO 67 0 min 0,000 mm 0,0 UV-I 0 W/m 6,9 C 10,2 C 12,9 km/h (3 Bft) 100,00 %
07.05.2016 01:38 11,6 C 73 % 1013,4 hPa 0,0 l/m 10,0 km/h (2 Bft) O-NO 63 0 min 0,000 mm 0,0 UV-I 0 W/m 6,9 C 9,4 C 14,5 km/h (3 Bft) 95,65 %
07.05.2016 01:39 11,6 C 73 % 1013,4 hPa 0,0 l/m 8,8 km/h (2 Bft) O-NO 78 0 min 0,000 mm 0,0 UV-I 0 W/m 6,9 C 10,0 C 12,9 km/h (3 Bft) 100,00 %
07.05.2016 01:40 11,6 C 72 % 1013,4 hPa 0,0 l/m 10,6 km/h (2 Bft) O 91 0 min 0,000 mm 0,0 UV-I 0 W/m 6,7 C 9,0 C 14,5 km/h (3 Bft) 100,00 %
07.05.2016 01:41 11,6 C 73 % 1013,4 hPa 0,0 l/m 9,9 km/h (2 Bft) O-NO 65 0 min 0,000 mm 0,0 UV-I 0 W/m 6,9 C 9,4 C 12,9 km/h (3 Bft) 100,00 %
07.05.2016 01:42 11,6 C 72 % 1013,4 hPa 0,0 l/m 10,7 km/h (2 Bft) O-NO 71 0 min 0,000 mm 0,0 UV-I 0 W/m 6,7 C 9,0 C 14,5 km/h (3 Bft) 100,00 %
07.05.2016 01:43 11,6 C 72 % 1013,4 hPa 0,0 l/m 8,8 km/h (2 Bft) O 84 0 min 0,000 mm 0,0 UV-I 0 W/m 6,7 C 10,0 C 12,9 km/h (3 Bft) 100,00 %
07.05.2016 01:44 11,6 C 72 % 1013,4 hPa 0,0 l/m 10,8 km/h (2 Bft) O-NO 69 0 min 0,000 mm 0,0 UV-I 0 W/m 6,7 C 8,9 C 14,5 km/h (3 Bft) 95,65 %
07.05.2016 01:45 11,6 C 72 % 1013,4 hPa 0,0 l/m 11,1 km/h (2 Bft) O-NO 69 0 min 0,000 mm 0,0 UV-I 0 W/m 6,7 C 8,8 C 16,1 km/h (3 Bft) 100,00 %
07.05.2016 01:46 11,6 C 72 % 1013,4 hPa 0,0 l/m 6,7 km/h (2 Bft) O 94 0 min 0,000 mm 0,0 UV-I 0 W/m 6,7 C 11,4 C 11,3 km/h (2 Bft) 100,00 %
07.05.2016 01:47 11,6 C 72 % 1013,4 hPa 0,0 l/m 9,4 km/h (2 Bft) O 84 0 min 0,000 mm 0,0 UV-I 0 W/m 6,7 C 9,7 C 12,9 km/h (3 Bft) 100,00 %
07.05.2016 01:48 11,7 C 72 % 1013,4 hPa 0,0 l/m 8,4 km/h (2 Bft) O 82 0 min 0,000 mm 0,0 UV-I 0 W/m 6,8 C 10,4 C 12,9 km/h (3 Bft) 100,00 %
07.05.2016 01:49 11,7 C 72 % 1013,4 hPa 0,0 l/m 6,6 km/h (2 Bft) O 80 0 min 0,000 mm 0,0 UV-I 0 W/m 6,8 C 11,6 C 8,0 km/h (2 Bft) 100,00 %
07.05.2016 01:50 11,7 C 72 % 1013,4 hPa 0,0 l/m 9,7 km/h (2 Bft) O-NO 71 0 min 0,000 mm 0,0 UV-I 0 W/m 6,8 C 9,6 C 12,9 km/h (3 Bft) 95,65 %
07.05.2016 01:51 11,7 C 72 % 1013,4 hPa 0,0 l/m 10,6 km/h (2 Bft) O-NO 78 0 min 0,000 mm 0,0 UV-I 0 W/m 6,8 C 9,2 C 14,5 km/h (3 Bft) 100,00 %
07.05.2016 01:52 11,7 C 72 % 1013,4 hPa 0,0 l/m 9,9 km/h (2 Bft) O-NO 67 0 min 0,000 mm 0,0 UV-I 0 W/m 6,8 C 9,5 C 14,5 km/h (3 Bft) 100,00 %
07.05.2016 01:53 11,6 C 72 % 1013,4 hPa 0,0 l/m 9,3 km/h (2 Bft) O 81 0 min 0,000 mm 0,0 UV-I 0 W/m 6,7 C 9,8 C 12,9 km/h (3 Bft) 100,00 %
07.05.2016 01:54 11,6 C 72 % 1013,4 hPa 0,0 l/m 9,0 km/h (2 Bft) NO 55 0 min 0,000 mm 0,0 UV-I 0 W/m 6,7 C 9,9 C 12,9 km/h (3 Bft) 100,00 %
07.05.2016 01:55 11,6 C 72 % 1013,4 hPa 0,0 l/m 11,1 km/h (2 Bft) O 84 0 min 0,000 mm 0,0 UV-I 0 W/m 6,7 C 8,8 C 14,5 km/h (3 Bft) 100,00 %
07.05.2016 01:56 11,6 C 72 % 1013,4 hPa 0,0 l/m 10,3 km/h (2 Bft) O-NO 74 0 min 0,000 mm 0,0 UV-I 0 W/m 6,7 C 9,2 C 12,9 km/h (3 Bft) 100,00 %
07.05.2016 01:57 11,6 C 72 % 1013,3 hPa 0,0 l/m 9,3 km/h (2 Bft) O-NO 61 0 min 0,000 mm 0,0 UV-I 0 W/m 6,7 C 9,8 C 12,9 km/h (3 Bft) 100,00 %
07.05.2016 01:58 11,6 C 72 % 1013,4 hPa 0,0 l/m 8,1 km/h (2 Bft) NO 56 0 min 0,000 mm 0,0 UV-I 0 W/m 6,7 C 10,5 C 14,5 km/h (3 Bft) 100,00 %
07.05.2016 01:59 11,6 C 72 % 1013,3 hPa 0,0 l/m 9,4 km/h (2 Bft) O-NO 73 0 min 0,000 mm 0,0 UV-I 0 W/m 6,7 C 9,7 C 12,9 km/h (3 Bft) 95,65 %
07.05.2016 02:00 11,6 C 73 % 1013,3 hPa 0,0 l/m 10,8 km/h (2 Bft) O-NO 63 0 min 0,000 mm 0,0 UV-I 0 W/m 6,9 C 8,9 C 14,5 km/h (3 Bft) 100,00 %
07.05.2016 02:01 11,5 C 73 % 1013,3 hPa 0,0 l/m 9,9 km/h (2 Bft) O-NO 74 0 min 0,026 mm 0,0 UV-I 0 W/m 6,8 C 9,3 C 14,5 km/h (3 Bft) 100,00 %
07.05.2016 02:02 11,5 C 73 % 1013,3 hPa 0,0 l/m 8,6 km/h (2 Bft) O-NO 65 0 min 0,000 mm 0,0 UV-I 0 W/m 6,8 C 10,1 C 12,9 km/h (3 Bft) 100,00 %
07.05.2016 02:03 11,5 C 73 % 1013,3 hPa 0,0 l/m 10,4 km/h (2 Bft) O-NO 76 0 min 0,000 mm 0,0 UV-I 0 W/m 6,8 C 9,0 C 12,9 km/h (3 Bft) 95,65 %
07.05.2016 02:04 11,5 C 73 % 1013,3 hPa 0,0 l/m 8,9 km/h (2 Bft) NO 55 0 min 0,000 mm 0,0 UV-I 0 W/m 6,8 C 9,9 C 14,5 km/h (3 Bft) 100,00 %
07.05.2016 02:05 11,5 C 73 % 1013,3 hPa 0,0 l/m 10,5 km/h (2 Bft) O 80 0 min 0,000 mm 0,0 UV-I 0 W/m 6,8 C 9,0 C 12,9 km/h (3 Bft) 100,00 %
07.05.2016 02:06 11,4 C 73 % 1013,3 hPa 0,0 l/m 10,9 km/h (2 Bft) O-NO 76 0 min 0,000 mm 0,0 UV-I 0 W/m 6,7 C 8,7 C 12,9 km/h (3 Bft) 100,00 %
07.05.2016 02:07 11,4 C 73 % 1013,3 hPa 0,0 l/m 10,5 km/h (2 Bft) O-NO 70 0 min 0,000 mm 0,0 UV-I 0 W/m 6,7 C 8,9 C 14,5 km/h (3 Bft) 95,65 %
07.05.2016 02:08 11,4 C 73 % 1013,3 hPa 0,0 l/m 10,1 km/h (2 Bft) O-NO 60 0 min 0,000 mm 0,0 UV-I 0 W/m 6,7 C 9,1 C 12,9 km/h (3 Bft) 100,00 %
07.05.2016 02:09 11,4 C 73 % 1013,3 hPa 0,0 l/m 10,7 km/h (2 Bft) O-NO 78 0 min 0,000 mm 0,0 UV-I 0 W/m 6,7 C 8,8 C 14,5 km/h (3 Bft) 95,65 %
07.05.2016 02:10 11,4 C 73 % 1013,2 hPa 0,0 l/m 12,2 km/h (2 Bft) O-SO 119 0 min 0,000 mm 0,0 UV-I 0 W/m 6,7 C 8,0 C 16,1 km/h (3 Bft) 100,00 %
07.05.2016 02:11 11,4 C 73 % 1013,2 hPa 0,0 l/m 11,3 km/h (2 Bft) O-NO 67 0 min 0,000 mm 0,0 UV-I 0 W/m 6,7 C 8,5 C 16,1 km/h (3 Bft) 96,15 %
07.05.2016 02:12 11,4 C 73 % 1013,2 hPa 0,0 l/m 11,3 km/h (2 Bft) O-NO 74 0 min 0,000 mm 0,0 UV-I 0 W/m 6,7 C 8,5 C 17,7 km/h (3 Bft) 100,00 %
07.05.2016 02:13 11,5 C 73 % 1013,2 hPa 0,0 l/m 11,1 km/h (2 Bft) O 98 0 min 0,000 mm 0,0 UV-I 0 W/m 6,8 C 8,7 C 14,5 km/h (3 Bft) 100,00 %
07.05.2016 02:14 11,5 C 73 % 1013,2 hPa 0,0 l/m 11,7 km/h (2 Bft) O 84 0 min 0,000 mm 0,0 UV-I 0 W/m 6,8 C 8,4 C 14,5 km/h (3 Bft) 100,00 %
07.05.2016 02:15 11,5 C 73 % 1013,2 hPa 0,0 l/m 13,5 km/h (3 Bft) O-NO 72 0 min 0,000 mm 0,0 UV-I 0 W/m 6,8 C 7,6 C 19,3 km/h (3 Bft) 95,83 %
07.05.2016 02:16 11,5 C 72 % 1013,2 hPa 0,0 l/m 11,2 km/h (2 Bft) O-NO 63 0 min 0,000 mm 0,0 UV-I 0 W/m 6,6 C 8,6 C 14,5 km/h (3 Bft) 100,00 %
07.05.2016 02:17 11,5 C 72 % 1013,2 hPa 0,0 l/m 13,0 km/h (3 Bft) O-NO 63 0 min 0,000 mm 0,0 UV-I 0 W/m 6,6 C 7,8 C 16,1 km/h (3 Bft) 100,00 %
07.05.2016 02:18 11,6 C 72 % 1013,2 hPa 0,0 l/m 13,1 km/h (3 Bft) O-NO 77 0 min 0,000 mm 0,0 UV-I 0 W/m 6,7 C 7,9 C 16,1 km/h (3 Bft) 95,65 %
07.05.2016 02:19 11,5 C 72 % 1013,2 hPa 0,0 l/m 10,9 km/h (2 Bft) O 81 0 min 0,000 mm 0,0 UV-I 0 W/m 6,6 C 8,8 C 14,5 km/h (3 Bft) 100,00 %
07.05.2016 02:20 11,6 C 72 % 1013,2 hPa 0,0 l/m 13,3 km/h (3 Bft) O 84 0 min 0,000 mm 0,0 UV-I 0 W/m 6,7 C 7,8 C 17,7 km/h (3 Bft) 100,00 %
07.05.2016 02:21 11,6 C 72 % 1013,2 hPa 0,0 l/m 8,3 km/h (2 Bft) O-NO 68 0 min 0,000 mm 0,0 UV-I 0 W/m 6,7 C 10,3 C 12,9 km/h (3 Bft) 100,00 %
07.05.2016 02:22 11,5 C 73 % 1013,2 hPa 0,0 l/m 5,8 km/h (2 Bft) O 85 0 min 0,000 mm 0,0 UV-I 0 W/m 6,8 C 11,5 C 8,0 km/h (2 Bft) 96,15 %
07.05.2016 02:23 11,5 C 73 % 1013,2 hPa 0,0 l/m 6,3 km/h (2 Bft) O-NO 63 0 min 0,000 mm 0,0 UV-I 0 W/m 6,8 C 11,5 C 11,3 km/h (2 Bft) 100,00 %
07.05.2016 02:24 11,4 C 73 % 1013,2 hPa 0,0 l/m 5,8 km/h (2 Bft) O 84 0 min 0,000 mm 0,0 UV-I 0 W/m 6,7 C 11,4 C 8,0 km/h (2 Bft) 100,00 %
07.05.2016 02:25 11,4 C 73 % 1013,2 hPa 0,0 l/m 5,2 km/h (1 Bft) O-NO 76 0 min 0,000 mm 0,0 UV-I 0 W/m 6,7 C 11,4 C 6,4 km/h (2 Bft) 100,00 %
07.05.2016 02:26 11,3 C 73 % 1013,2 hPa 0,0 l/m 7,1 km/h (2 Bft) O 82 0 min 0,000 mm 0,0 UV-I 0 W/m 6,6 C 10,8 C 11,3 km/h (2 Bft) 95,65 %
07.05.2016 02:27 11,3 C 73 % 1013,2 hPa 0,0 l/m 9,7 km/h (2 Bft) O-NO 67 0 min 0,000 mm 0,0 UV-I 0 W/m 6,6 C 9,2 C 12,9 km/h (3 Bft) 100,00 %
07.05.2016 02:28 11,3 C 73 % 1013,2 hPa 0,0 l/m 8,3 km/h (2 Bft) O 82 0 min 0,000 mm 0,0 UV-I 0 W/m 6,6 C 10,0 C 12,9 km/h (3 Bft) 92,31 %
07.05.2016 02:29 11,3 C 73 % 1013,2 hPa 0,0 l/m 8,5 km/h (2 Bft) O-NO 67 0 min 0,000 mm 0,0 UV-I 0 W/m 6,6 C 9,9 C 12,9 km/h (3 Bft) 100,00 %
07.05.2016 02:30 11,3 C 73 % 1013,1 hPa 0,0 l/m 9,0 km/h (2 Bft) O-NO 63 0 min 0,000 mm 0,0 UV-I 0 W/m 6,6 C 9,6 C 12,9 km/h (3 Bft) 95,65 %
07.05.2016 02:31 11,3 C 73 % 1013,1 hPa 0,0 l/m 7,0 km/h (2 Bft) O-NO 67 0 min 0,000 mm 0,0 UV-I 0 W/m 6,6 C 10,9 C 9,7 km/h (2 Bft) 100,00 %
07.05.2016 02:32 11,3 C 73 % 1013,1 hPa 0,0 l/m 7,5 km/h (2 Bft) O-NO 68 0 min 0,000 mm 0,0 UV-I 0 W/m 6,6 C 10,5 C 11,3 km/h (2 Bft) 95,65 %
07.05.2016 02:33 11,3 C 73 % 1013,1 hPa 0,0 l/m 7,1 km/h (2 Bft) NO 42 0 min 0,000 mm 0,0 UV-I 0 W/m 6,6 C 10,8 C 11,3 km/h (2 Bft) 95,83 %
07.05.2016 02:34 11,3 C 73 % 1013,2 hPa 0,0 l/m 5,9 km/h (2 Bft) NO 50 0 min 0,000 mm 0,0 UV-I 0 W/m 6,6 C 11,3 C 9,7 km/h (2 Bft) 95,65 %
07.05.2016 02:35 11,3 C 74 % 1013,2 hPa 0,0 l/m 5,7 km/h (1 Bft) O-NO 57 0 min 0,000 mm 0,0 UV-I 0 W/m 6,8 C 11,3 C 6,4 km/h (2 Bft) 95,83 %
07.05.2016 02:36 11,2 C 74 % 1013,2 hPa 0,0 l/m 5,0 km/h (1 Bft) O-NO 74 0 min 0,000 mm 0,0 UV-I 0 W/m 6,7 C 11,2 C 6,4 km/h (2 Bft) 95,83 %
07.05.2016 02:37 11,1 C 74 % 1013,1 hPa 0,0 l/m 4,3 km/h (1 Bft) O-NO 76 0 min 0,000 mm 0,0 UV-I 0 W/m 6,6 C 11,1 C 6,4 km/h (2 Bft) 100,00 %
07.05.2016 02:38 10,9 C 75 % 1013,1 hPa 0,0 l/m 3,6 km/h (1 Bft) O 82 0 min 0,000 mm 0,0 UV-I 0 W/m 6,6 C 10,9 C 4,8 km/h (1 Bft) 95,83 %
07.05.2016 02:39 10,8 C 75 % 1013,1 hPa 0,0 l/m 4,6 km/h (1 Bft) O-NO 71 0 min 0,000 mm 0,0 UV-I 0 W/m 6,5 C 10,8 C 8,0 km/h (2 Bft) 100,00 %
07.05.2016 02:40 10,8 C 75 % 1013,1 hPa 0,0 l/m 8,0 km/h (2 Bft) O 80 0 min 0,000 mm 0,0 UV-I 0 W/m 6,5 C 9,7 C 12,9 km/h (3 Bft) 91,67 %
07.05.2016 02:41 10,8 C 75 % 1013,0 hPa 0,0 l/m 7,6 km/h (2 Bft) NO 54 0 min 0,000 mm 0,0 UV-I 0 W/m 6,5 C 10,0 C 11,3 km/h (2 Bft) 95,65 %
07.05.2016 02:42 10,8 C 75 % 1013,1 hPa 0,0 l/m 6,3 km/h (2 Bft) O-NO 69 0 min 0,000 mm 0,0 UV-I 0 W/m 6,5 C 10,8 C 9,7 km/h (2 Bft) 95,83 %
07.05.2016 02:43 10,8 C 75 % 1013,1 hPa 0,0 l/m 6,1 km/h (2 Bft) O 94 0 min 0,000 mm 0,0 UV-I 0 W/m 6,5 C 10,8 C 12,9 km/h (3 Bft) 91,30 %
07.05.2016 02:44 10,8 C 75 % 1013,1 hPa 0,0 l/m 11,0 km/h (2 Bft) O-NO 74 0 min 0,000 mm 0,0 UV-I 0 W/m 6,5 C 7,9 C 14,5 km/h (3 Bft) 100,00 %
07.05.2016 02:45 10,8 C 75 % 1013,1 hPa 0,0 l/m 9,2 km/h (2 Bft) O-NO 71 0 min 0,000 mm 0,0 UV-I 0 W/m 6,5 C 8,9 C 12,9 km/h (3 Bft) 96,15 %
07.05.2016 02:46 10,9 C 75 % 1013,1 hPa 0,0 l/m 9,9 km/h (2 Bft) O 82 0 min 0,000 mm 0,0 UV-I 0 W/m 6,6 C 8,6 C 14,5 km/h (3 Bft) 100,00 %
07.05.2016 02:47 10,9 C 75 % 1013,0 hPa 0,0 l/m 8,4 km/h (2 Bft) O 92 0 min 0,000 mm 0,0 UV-I 0 W/m 6,6 C 9,5 C 12,9 km/h (3 Bft) 91,30 %
07.05.2016 02:48 10,9 C 75 % 1013,0 hPa 0,0 l/m 10,2 km/h (2 Bft) O 82 0 min 0,000 mm 0,0 UV-I 0 W/m 6,6 C 8,5 C 12,9 km/h (3 Bft) 100,00 %
07.05.2016 02:49 10,9 C 75 % 1013,0 hPa 0,0 l/m 9,3 km/h (2 Bft) O 86 0 min 0,000 mm 0,0 UV-I 0 W/m 6,6 C 9,0 C 12,9 km/h (3 Bft) 96,15 %
07.05.2016 02:50 10,9 C 75 % 1013,1 hPa 0,0 l/m 8,1 km/h (2 Bft) O-NO 63 0 min 0,000 mm 0,0 UV-I 0 W/m 6,6 C 9,7 C 11,3 km/h (2 Bft) 100,00 %
07.05.2016 02:51 10,9 C 75 % 1013,0 hPa 0,0 l/m 9,2 km/h (2 Bft) O 79 0 min 0,000 mm 0,0 UV-I 0 W/m 6,6 C 9,0 C 12,9 km/h (3 Bft) 95,65 %
07.05.2016 02:52 11,0 C 75 % 1013,0 hPa 0,0 l/m 6,8 km/h (2 Bft) O-NO 59 0 min 0,000 mm 0,0 UV-I 0 W/m 6,7 C 10,7 C 8,0 km/h (2 Bft) 95,83 %
07.05.2016 02:53 11,0 C 75 % 1013,0 hPa 0,0 l/m 6,6 km/h (2 Bft) O-NO 66 0 min 0,000 mm 0,0 UV-I 0 W/m 6,7 C 10,9 C 9,7 km/h (2 Bft) 91,67 %
07.05.2016 02:54 11,0 C 75 % 1013,0 hPa 0,0 l/m 8,0 km/h (2 Bft) O-NO 71 0 min 0,000 mm 0,0 UV-I 0 W/m 6,7 C 9,9 C 11,3 km/h (2 Bft) 95,65 %
07.05.2016 02:55 11,0 C 74 % 1013,0 hPa 0,0 l/m 7,4 km/h (2 Bft) O-NO 76 0 min 0,000 mm 0,0 UV-I 0 W/m 6,5 C 10,3 C 11,3 km/h (2 Bft) 100,00 %
07.05.2016 02:56 11,0 C 74 % 1013,0 hPa 0,0 l/m 7,8 km/h (2 Bft) O-NO 75 0 min 0,000 mm 0,0 UV-I 0 W/m 6,5 C 10,0 C 11,3 km/h (2 Bft) 95,65 %
07.05.2016 02:57 11,0 C 75 % 1012,9 hPa 0,0 l/m 7,7 km/h (2 Bft) O-NO 67 0 min 0,000 mm 0,0 UV-I 0 W/m 6,7 C 10,1 C 11,3 km/h (2 Bft) 100,00 %
07.05.2016 02:58 11,0 C 75 % 1012,9 hPa 0,0 l/m 5,9 km/h (2 Bft) O-NO 69 0 min 0,000 mm 0,0 UV-I 0 W/m 6,7 C 11,0 C 9,7 km/h (2 Bft) 95,65 %
07.05.2016 02:59 10,9 C 75 % 1012,9 hPa 0,0 l/m 5,5 km/h (1 Bft) O 84 0 min 0,000 mm 0,0 UV-I 0 W/m 6,6 C 10,9 C 8,0 km/h (2 Bft) 96,30 %
07.05.2016 03:00 10,9 C 75 % 1012,9 hPa 0,0 l/m 4,5 km/h (1 Bft) O-NO 72 0 min 0,000 mm 0,0 UV-I 0 W/m 6,6 C 10,9 C 6,4 km/h (2 Bft) 95,65 %
07.05.2016 03:01 10,9 C 75 % 1012,9 hPa 0,0 l/m 5,6 km/h (1 Bft) O 79 0 min 0,025 mm 0,0 UV-I 0 W/m 6,6 C 10,9 C 8,0 km/h (2 Bft) 95,83 %
07.05.2016 03:02 10,9 C 75 % 1012,9 hPa 0,0 l/m 6,6 km/h (2 Bft) O-NO 62 0 min 0,000 mm 0,0 UV-I 0 W/m 6,6 C 10,8 C 8,0 km/h (2 Bft) 100,00 %
07.05.2016 03:03 10,9 C 75 % 1012,9 hPa 0,0 l/m 7,4 km/h (2 Bft) O-NO 74 0 min 0,000 mm 0,0 UV-I 0 W/m 6,6 C 10,2 C 9,7 km/h (2 Bft) 95,83 %
07.05.2016 03:04 10,9 C 75 % 1012,8 hPa 0,0 l/m 5,7 km/h (1 Bft) O-NO 66 0 min 0,000 mm 0,0 UV-I 0 W/m 6,6 C 10,9 C 8,0 km/h (2 Bft) 100,00 %
07.05.2016 03:05 10,9 C 75 % 1012,8 hPa 0,0 l/m 6,4 km/h (2 Bft) O-NO 64 0 min 0,000 mm 0,0 UV-I 0 W/m 6,6 C 10,9 C 9,7 km/h (2 Bft) 95,83 %
07.05.2016 03:06 10,9 C 75 % 1012,8 hPa 0,0 l/m 4,5 km/h (1 Bft) O-NO 74 0 min 0,000 mm 0,0 UV-I 0 W/m 6,6 C 10,9 C 6,4 km/h (2 Bft) 100,00 %
07.05.2016 03:07 10,9 C 75 % 1012,8 hPa 0,0 l/m 5,3 km/h (1 Bft) O-NO 76 0 min 0,000 mm 0,0 UV-I 0 W/m 6,6 C 10,9 C 6,4 km/h (2 Bft) 100,00 %
07.05.2016 03:08 10,9 C 75 % 1012,8 hPa 0,0 l/m 4,9 km/h (1 Bft) O-NO 72 0 min 0,000 mm 0,0 UV-I 0 W/m 6,6 C 10,9 C 6,4 km/h (2 Bft) 100,00 %
07.05.2016 03:09 10,8 C 75 % 1012,8 hPa 0,0 l/m 5,2 km/h (1 Bft) O-NO 71 0 min 0,000 mm 0,0 UV-I 0 W/m 6,5 C 10,8 C 6,4 km/h (2 Bft) 100,00 %
07.05.2016 03:10 10,8 C 75 % 1012,8 hPa 0,0 l/m 5,5 km/h (1 Bft) O 84 0 min 0,000 mm 0,0 UV-I 0 W/m 6,5 C 10,8 C 6,4 km/h (2 Bft) 95,65 %
07.05.2016 03:11 10,8 C 75 % 1012,8 hPa 0,0 l/m 4,8 km/h (1 Bft) O 81 0 min 0,000 mm 0,0 UV-I 0 W/m 6,5 C 10,8 C 6,4 km/h (2 Bft) 100,00 %
07.05.2016 03:12 10,7 C 76 % 1012,8 hPa 0,0 l/m 4,1 km/h (1 Bft) O 82 0 min 0,000 mm 0,0 UV-I 0 W/m 6,6 C 10,7 C 4,8 km/h (1 Bft) 100,00 %
07.05.2016 03:13 10,6 C 76 % 1012,8 hPa 0,0 l/m 5,0 km/h (1 Bft) O 101 0 min 0,000 mm 0,0 UV-I 0 W/m 6,5 C 10,6 C 6,4 km/h (2 Bft) 100,00 %
07.05.2016 03:14 10,6 C 76 % 1012,7 hPa 0,0 l/m 6,0 km/h (2 Bft) O 91 0 min 0,000 mm 0,0 UV-I 0 W/m 6,5 C 10,6 C 11,3 km/h (2 Bft) 100,00 %
07.05.2016 03:15 10,6 C 76 % 1012,7 hPa 0,0 l/m 5,8 km/h (2 Bft) O 79 0 min 0,000 mm 0,0 UV-I 0 W/m 6,5 C 10,6 C 8,0 km/h (2 Bft) 91,67 %
07.05.2016 03:16 10,5 C 76 % 1012,8 hPa 0,0 l/m 6,4 km/h (2 Bft) O-NO 67 0 min 0,000 mm 0,0 UV-I 0 W/m 6,5 C 10,5 C 9,7 km/h (2 Bft) 100,00 %
07.05.2016 03:17 10,5 C 76 % 1012,7 hPa 0,0 l/m 9,3 km/h (2 Bft) O 90 0 min 0,000 mm 0,0 UV-I 0 W/m 6,5 C 8,6 C 12,9 km/h (3 Bft) 100,00 %
07.05.2016 03:18 10,5 C 76 % 1012,7 hPa 0,0 l/m 6,8 km/h (2 Bft) O 82 0 min 0,000 mm 0,0 UV-I 0 W/m 6,5 C 10,2 C 9,7 km/h (2 Bft) 100,00 %
07.05.2016 03:19 10,5 C 76 % 1012,7 hPa 0,0 l/m 7,2 km/h (2 Bft) O-NO 67 0 min 0,000 mm 0,0 UV-I 0 W/m 6,5 C 9,9 C 9,7 km/h (2 Bft) 86,96 %
07.05.2016 03:20 10,6 C 76 % 1012,7 hPa 0,0 l/m 7,2 km/h (2 Bft) O-NO 77 0 min 0,000 mm 0,0 UV-I 0 W/m 6,5 C 10,0 C 9,7 km/h (2 Bft) 95,83 %
07.05.2016 03:21 10,6 C 76 % 1012,7 hPa 0,0 l/m 6,8 km/h (2 Bft) O-NO 74 0 min 0,000 mm 0,0 UV-I 0 W/m 6,5 C 10,3 C 8,0 km/h (2 Bft) 100,00 %
07.05.2016 03:22 10,6 C 76 % 1012,7 hPa 0,0 l/m 5,2 km/h (1 Bft) O 79 0 min 0,000 mm 0,0 UV-I 0 W/m 6,5 C 10,6 C 8,0 km/h (2 Bft) 100,00 %
07.05.2016 03:23 10,6 C 76 % 1012,7 hPa 0,0 l/m 5,5 km/h (1 Bft) O 82 0 min 0,000 mm 0,0 UV-I 0 W/m 6,5 C 10,6 C 6,4 km/h (2 Bft) 100,00 %
07.05.2016 03:24 10,6 C 76 % 1012,7 hPa 0,0 l/m 6,2 km/h (2 Bft) O-NO 61 0 min 0,000 mm 0,0 UV-I 0 W/m 6,5 C 10,6 C 8,0 km/h (2 Bft) 100,00 %
07.05.2016 03:25 10,6 C 76 % 1012,7 hPa 0,0 l/m 5,2 km/h (1 Bft) O-NO 67 0 min 0,000 mm 0,0 UV-I 0 W/m 6,5 C 10,6 C 6,4 km/h (2 Bft) 100,00 %
07.05.2016 03:26 10,6 C 76 % 1012,7 hPa 0,0 l/m 3,4 km/h (1 Bft) O-NO 65 0 min 0,000 mm 0,0 UV-I 0 W/m 6,5 C 10,6 C 4,8 km/h (1 Bft) 100,00 %
07.05.2016 03:27 10,6 C 76 % 1012,7 hPa 0,0 l/m 2,7 km/h (1 Bft) O-NO 65 0 min 0,000 mm 0,0 UV-I 0 W/m 6,5 C 10,6 C 3,2 km/h (1 Bft) 100,00 %
07.05.2016 03:28 10,6 C 76 % 1012,7 hPa 0,0 l/m 3,4 km/h (1 Bft) O-NO 67 0 min 0,000 mm 0,0 UV-I 0 W/m 6,5 C 10,6 C 4,8 km/h (1 Bft) 100,00 %
07.05.2016 03:29 10,5 C 76 % 1012,7 hPa 0,0 l/m 3,5 km/h (1 Bft) O-NO 77 0 min 0,000 mm 0,0 UV-I 0 W/m 6,5 C 10,5 C 4,8 km/h (1 Bft) 100,00 %
07.05.2016 03:30 10,4 C 76 % 1012,6 hPa 0,0 l/m 3,0 km/h (1 Bft) O-NO 74 0 min 0,000 mm 0,0 UV-I 0 W/m 6,4 C 10,4 C 4,8 km/h (1 Bft) 100,00 %
07.05.2016 03:31 10,4 C 77 % 1012,7 hPa 0,0 l/m 3,4 km/h (1 Bft) O-NO 74 0 min 0,000 mm 0,0 UV-I 0 W/m 6,5 C 10,4 C 4,8 km/h (1 Bft) 100,00 %
07.05.2016 03:32 10,3 C 77 % 1012,7 hPa 0,0 l/m 3,2 km/h (1 Bft) O-NO 74 0 min 0,000 mm 0,0 UV-I 0 W/m 6,4 C 10,3 C 4,8 km/h (1 Bft) 100,00 %
07.05.2016 03:33 10,3 C 77 % 1012,7 hPa 0,0 l/m 4,1 km/h (1 Bft) O-NO 72 0 min 0,000 mm 0,0 UV-I 0 W/m 6,4 C 10,3 C 4,8 km/h (1 Bft) 100,00 %
07.05.2016 03:34 10,3 C 77 % 1012,8 hPa 0,0 l/m 4,8 km/h (1 Bft) O-NO 78 0 min 0,000 mm 0,0 UV-I 0 W/m 6,4 C 10,3 C 6,4 km/h (2 Bft) 100,00 %
07.05.2016 03:35 10,2 C 77 % 1012,7 hPa 0,0 l/m 3,5 km/h (1 Bft) O-NO 72 0 min 0,000 mm 0,0 UV-I 0 W/m 6,4 C 10,2 C 4,8 km/h (1 Bft) 100,00 %
07.05.2016 03:36 10,2 C 78 % 1012,7 hPa 0,0 l/m 4,1 km/h (1 Bft) O-NO 69 0 min 0,000 mm 0,0 UV-I 0 W/m 6,5 C 10,2 C 6,4 km/h (2 Bft) 100,00 %
07.05.2016 03:37 10,2 C 78 % 1012,7 hPa 0,0 l/m 4,5 km/h (1 Bft) O-NO 71 0 min 0,000 mm 0,0 UV-I 0 W/m 6,5 C 10,2 C 4,8 km/h (1 Bft) 100,00 %
07.05.2016 03:38 10,1 C 78 % 1012,7 hPa 0,0 l/m 4,4 km/h (1 Bft) O-NO 68 0 min 0,000 mm 0,0 UV-I 0 W/m 6,4 C 10,1 C 6,4 km/h (2 Bft) 100,00 %
07.05.2016 03:39 10,1 C 78 % 1012,7 hPa 0,0 l/m 5,1 km/h (1 Bft) O-NO 60 0 min 0,000 mm 0,0 UV-I 0 W/m 6,4 C 10,1 C 6,4 km/h (2 Bft) 100,00 %
07.05.2016 03:40 10,1 C 78 % 1012,7 hPa 0,0 l/m 4,4 km/h (1 Bft) O-NO 61 0 min 0,000 mm 0,0 UV-I 0 W/m 6,4 C 10,1 C 6,4 km/h (2 Bft) 100,00 %
07.05.2016 03:41 10,1 C 78 % 1012,7 hPa 0,0 l/m 3,9 km/h (1 Bft) O-NO 61 0 min 0,000 mm 0,0 UV-I 0 W/m 6,4 C 10,1 C 4,8 km/h (1 Bft) 100,00 %
07.05.2016 03:42 10,0 C 78 % 1012,7 hPa 0,0 l/m 3,8 km/h (1 Bft) O-NO 58 0 min 0,000 mm 0,0 UV-I 0 W/m 6,3 C 10,0 C 4,8 km/h (1 Bft) 100,00 %
07.05.2016 03:43 10,0 C 78 % 1012,7 hPa 0,0 l/m 3,9 km/h (1 Bft) O-NO 59 0 min 0,000 mm 0,0 UV-I 0 W/m 6,3 C 10,0 C 4,8 km/h (1 Bft) 100,00 %
07.05.2016 03:44 10,0 C 78 % 1012,7 hPa 0,0 l/m 2,4 km/h (1 Bft) O-NO 59 0 min 0,000 mm 0,0 UV-I 0 W/m 6,3 C 10,0 C 3,2 km/h (1 Bft) 100,00 %
07.05.2016 03:45 10,0 C 78 % 1012,7 hPa 0,0 l/m 4,6 km/h (1 Bft) O-NO 60 0 min 0,000 mm 0,0 UV-I 0 W/m 6,3 C 10,0 C 6,4 km/h (2 Bft) 100,00 %
07.05.2016 03:46 9,9 C 78 % 1012,7 hPa 0,0 l/m 4,2 km/h (1 Bft) O-NO 60 0 min 0,000 mm 0,0 UV-I 0 W/m 6,2 C 9,9 C 4,8 km/h (1 Bft) 100,00 %
07.05.2016 03:47 9,9 C 79 % 1012,7 hPa 0,0 l/m 2,9 km/h (1 Bft) O-NO 60 0 min 0,000 mm 0,0 UV-I 0 W/m 6,4 C 9,9 C 4,8 km/h (1 Bft) 100,00 %
07.05.2016 03:48 9,9 C 79 % 1012,7 hPa 0,0 l/m 3,2 km/h (1 Bft) O-NO 59 0 min 0,000 mm 0,0 UV-I 0 W/m 6,4 C 9,9 C 4,8 km/h (1 Bft) 100,00 %
07.05.2016 03:49 9,8 C 79 % 1012,7 hPa 0,0 l/m 3,4 km/h (1 Bft) NO 53 0 min 0,000 mm 0,0 UV-I 0 W/m 6,3 C 9,8 C 6,4 km/h (2 Bft) 100,00 %
07.05.2016 03:50 9,8 C 79 % 1012,8 hPa 0,0 l/m 4,6 km/h (1 Bft) NO 46 0 min 0,000 mm 0,0 UV-I 0 W/m 6,3 C 9,8 C 6,4 km/h (2 Bft) 100,00 %
07.05.2016 03:51 9,7 C 79 % 1012,7 hPa 0,0 l/m 4,2 km/h (1 Bft) NO 42 0 min 0,000 mm 0,0 UV-I 0 W/m 6,2 C 9,7 C 4,8 km/h (1 Bft) 100,00 %
07.05.2016 03:52 9,6 C 80 % 1012,8 hPa 0,0 l/m 3,8 km/h (1 Bft) NO 42 0 min 0,000 mm 0,0 UV-I 0 W/m 6,3 C 9,6 C 4,8 km/h (1 Bft) 100,00 %
07.05.2016 03:53 9,5 C 80 % 1012,8 hPa 0,0 l/m 4,9 km/h (1 Bft) NO 44 0 min 0,000 mm 0,0 UV-I 0 W/m 6,2 C 9,5 C 8,0 km/h (2 Bft) 100,00 %
07.05.2016 03:54 9,4 C 80 % 1012,8 hPa 0,0 l/m 5,3 km/h (1 Bft) NO 40 0 min 0,000 mm 0,0 UV-I 0 W/m 6,1 C 9,4 C 8,0 km/h (2 Bft) 100,00 %
07.05.2016 03:55 9,4 C 81 % 1012,8 hPa 0,0 l/m 4,0 km/h (1 Bft) NO 40 0 min 0,000 mm 0,0 UV-I 0 W/m 6,3 C 9,4 C 4,8 km/h (1 Bft) 95,65 %
07.05.2016 03:56 9,3 C 81 % 1012,8 hPa 0,0 l/m 3,3 km/h (1 Bft) NO 40 0 min 0,000 mm 0,0 UV-I 0 W/m 6,2 C 9,3 C 4,8 km/h (1 Bft) 100,00 %
07.05.2016 03:57 9,3 C 81 % 1012,8 hPa 0,0 l/m 3,6 km/h (1 Bft) NO 40 0 min 0,000 mm 0,0 UV-I 0 W/m 6,2 C 9,3 C 6,4 km/h (2 Bft) 95,65 %
07.05.2016 03:58 9,3 C 81 % 1012,8 hPa 0,0 l/m 4,2 km/h (1 Bft) NO 39 0 min 0,000 mm 0,0 UV-I 0 W/m 6,2 C 9,3 C 4,8 km/h (1 Bft) 100,00 %
07.05.2016 03:59 9,3 C 81 % 1012,8 hPa 0,0 l/m 3,1 km/h (1 Bft) NO 39 0 min 0,000 mm 0,0 UV-I 0 W/m 6,2 C 9,3 C 4,8 km/h (1 Bft) 100,00 %
07.05.2016 04:00 9,3 C 81 % 1012,9 hPa 0,0 l/m 2,9 km/h (1 Bft) O-NO 59 0 min 0,000 mm 0,0 UV-I 0 W/m 6,2 C 9,3 C 3,2 km/h (1 Bft) 100,00 %
07.05.2016 04:03 9,3 C 82 % 1012,7 hPa 0,0 l/m 3,0 km/h (1 Bft) O-NO 59 0 min 0,026 mm 0,0 UV-I 0 W/m 6,4 C 9,3 C 3,2 km/h (1 Bft) 96,23 %
07.05.2016 04:04 9,3 C 82 % 1012,8 hPa 0,0 l/m 2,2 km/h (1 Bft) O-NO 59 0 min 0,000 mm 0,0 UV-I 0 W/m 6,4 C 9,3 C 3,2 km/h (1 Bft) 100,00 %
07.05.2016 04:05 9,3 C 82 % 1012,7 hPa 0,0 l/m 2,8 km/h (1 Bft) O-NO 59 0 min 0,000 mm 0,0 UV-I 0 W/m 6,4 C 9,3 C 3,2 km/h (1 Bft) 100,00 %
07.05.2016 04:06 9,2 C 82 % 1012,7 hPa 0,0 l/m 3,0 km/h (1 Bft) O-NO 59 0 min 0,000 mm 0,0 UV-I 0 W/m 6,3 C 9,2 C 3,2 km/h (1 Bft) 100,00 %
07.05.2016 04:07 9,2 C 82 % 1012,7 hPa 0,0 l/m 2,5 km/h (1 Bft) O-NO 59 0 min 0,000 mm 0,0 UV-I 0 W/m 6,3 C 9,2 C 3,2 km/h (1 Bft) 100,00 %
07.05.2016 04:08 9,2 C 82 % 1012,7 hPa 0,0 l/m 4,0 km/h (1 Bft) O-NO 66 0 min 0,000 mm 0,0 UV-I 0 W/m 6,3 C 9,2 C 4,8 km/h (1 Bft) 100,00 %
07.05.2016 04:09 9,2 C 82 % 1012,7 hPa 0,0 l/m 4,0 km/h (1 Bft) O-NO 66 0 min 0,000 mm 0,0 UV-I 0 W/m 6,3 C 9,2 C 4,8 km/h (1 Bft) 95,65 %
07.05.2016 04:10 9,3 C 82 % 1012,7 hPa 0,0 l/m 3,8 km/h (1 Bft) O-NO 65 0 min 0,000 mm 0,0 UV-I 0 W/m 6,4 C 9,3 C 4,8 km/h (1 Bft) 96,30 %
07.05.2016 04:11 9,3 C 82 % 1012,8 hPa 0,0 l/m 3,4 km/h (1 Bft) O-NO 63 0 min 0,000 mm 0,0 UV-I 0 W/m 6,4 C 9,3 C 4,8 km/h (1 Bft) 100,00 %
07.05.2016 04:12 9,3 C 82 % 1012,8 hPa 0,0 l/m 3,2 km/h (1 Bft) O-NO 63 0 min 0,000 mm 0,0 UV-I 0 W/m 6,4 C 9,3 C 4,8 km/h (1 Bft) 91,67 %
07.05.2016 04:13 9,3 C 81 % 1012,8 hPa 0,0 l/m 4,3 km/h (1 Bft) O-NO 63 0 min 0,000 mm 0,0 UV-I 0 W/m 6,2 C 9,3 C 4,8 km/h (1 Bft) 100,00 %
07.05.2016 04:14 9,4 C 81 % 1012,8 hPa 0,0 l/m 3,5 km/h (1 Bft) O-NO 63 0 min 0,000 mm 0,0 UV-I 0 W/m 6,3 C 9,4 C 4,8 km/h (1 Bft) 95,83 %
07.05.2016 04:15 9,4 C 81 % 1012,8 hPa 0,0 l/m 2,5 km/h (1 Bft) O-NO 63 0 min 0,000 mm 0,0 UV-I 0 W/m 6,3 C 9,4 C 4,8 km/h (1 Bft) 100,00 %
07.05.2016 04:16 9,4 C 81 % 1012,8 hPa 0,0 l/m 2,7 km/h (1 Bft) O-NO 63 0 min 0,000 mm 0,0 UV-I 0 W/m 6,3 C 9,4 C 4,8 km/h (1 Bft) 100,00 %
07.05.2016 04:17 9,4 C 81 % 1012,8 hPa 0,0 l/m 3,4 km/h (1 Bft) O-NO 63 0 min 0,000 mm 0,0 UV-I 0 W/m 6,3 C 9,4 C 4,8 km/h (1 Bft) 100,00 %
07.05.2016 04:18 9,4 C 81 % 1012,8 hPa 0,0 l/m 2,1 km/h (1 Bft) O-NO 63 0 min 0,000 mm 0,0 UV-I 0 W/m 6,3 C 9,4 C 3,2 km/h (1 Bft) 100,00 %
07.05.2016 04:19 9,5 C 81 % 1012,8 hPa 0,0 l/m 2,1 km/h (1 Bft) O-NO 63 0 min 0,000 mm 0,0 UV-I 0 W/m 6,4 C 9,5 C 3,2 km/h (1 Bft) 100,00 %
07.05.2016 04:20 9,5 C 81 % 1012,8 hPa 0,0 l/m 2,1 km/h (1 Bft) O-NO 63 0 min 0,000 mm 0,0 UV-I 0 W/m 6,4 C 9,5 C 3,2 km/h (1 Bft) 100,00 %
07.05.2016 04:21 9,5 C 81 % 1012,8 hPa 0,0 l/m 3,0 km/h (1 Bft) O-NO 63 0 min 0,000 mm 0,0 UV-I 0 W/m 6,4 C 9,5 C 3,2 km/h (1 Bft) 100,00 %
07.05.2016 04:22 9,5 C 81 % 1012,8 hPa 0,0 l/m 2,8 km/h (1 Bft) O-NO 63 0 min 0,000 mm 0,0 UV-I 0 W/m 6,4 C 9,5 C 3,2 km/h (1 Bft) 100,00 %
07.05.2016 04:23 9,5 C 81 % 1012,8 hPa 0,0 l/m 3,0 km/h (1 Bft) O-NO 63 0 min 0,000 mm 0,0 UV-I 0 W/m 6,4 C 9,5 C 3,2 km/h (1 Bft) 100,00 %
07.05.2016 04:24 9,4 C 81 % 1012,8 hPa 0,0 l/m 3,2 km/h (1 Bft) O-NO 63 0 min 0,000 mm 0,0 UV-I 0 W/m 6,3 C 9,4 C 4,8 km/h (1 Bft) 95,65 %
07.05.2016 04:25 9,5 C 81 % 1012,8 hPa 0,0 l/m 3,0 km/h (1 Bft) O-NO 63 0 min 0,000 mm 0,0 UV-I 0 W/m 6,4 C 9,5 C 4,8 km/h (1 Bft) 100,00 %
07.05.2016 04:26 9,4 C 81 % 1012,7 hPa 0,0 l/m 3,0 km/h (1 Bft) O-NO 63 0 min 0,000 mm 0,0 UV-I 0 W/m 6,3 C 9,4 C 4,8 km/h (1 Bft) 100,00 %
07.05.2016 04:27 9,5 C 81 % 1012,7 hPa 0,0 l/m 3,8 km/h (1 Bft) O-NO 63 0 min 0,000 mm 0,0 UV-I 0 W/m 6,4 C 9,5 C 4,8 km/h (1 Bft) 100,00 %
07.05.2016 04:28 9,4 C 81 % 1012,7 hPa 0,0 l/m 3,4 km/h (1 Bft) O-NO 63 0 min 0,000 mm 0,0 UV-I 0 W/m 6,3 C 9,4 C 4,8 km/h (1 Bft) 100,00 %
07.05.2016 04:29 9,4 C 81 % 1012,7 hPa 0,0 l/m 3,7 km/h (1 Bft) O-NO 66 0 min 0,000 mm 0,0 UV-I 0 W/m 6,3 C 9,4 C 4,8 km/h (1 Bft) 100,00 %
07.05.2016 04:30 9,4 C 81 % 1012,7 hPa 0,0 l/m 5,9 km/h (2 Bft) O 79 0 min 0,000 mm 0,0 UV-I 0 W/m 6,3 C 9,4 C 11,3 km/h (2 Bft) 100,00 %
07.05.2016 04:31 9,3 C 81 % 1012,7 hPa 0,0 l/m 6,3 km/h (2 Bft) O-SO 113 0 min 0,000 mm 0,0 UV-I 0 W/m 6,2 C 9,3 C 11,3 km/h (2 Bft) 100,00 %
07.05.2016 04:32 9,3 C 81 % 1012,7 hPa 0,0 l/m 7,5 km/h (2 Bft) O-NO 63 0 min 0,000 mm 0,0 UV-I 0 W/m 6,2 C 8,5 C 12,9 km/h (3 Bft) 100,00 %
07.05.2016 04:33 9,3 C 81 % 1012,7 hPa 0,0 l/m 6,8 km/h (2 Bft) O 82 0 min 0,000 mm 0,0 UV-I 0 W/m 6,2 C 9,0 C 12,9 km/h (3 Bft) 100,00 %
07.05.2016 04:34 9,3 C 81 % 1012,7 hPa 0,0 l/m 5,6 km/h (1 Bft) O-SO 113 0 min 0,000 mm 0,0 UV-I 0 W/m 6,2 C 9,3 C 6,4 km/h (2 Bft) 100,00 %
07.05.2016 04:35 9,2 C 81 % 1012,7 hPa 0,0 l/m 4,2 km/h (1 Bft) O 88 0 min 0,000 mm 0,0 UV-I 0 W/m 6,1 C 9,2 C 4,8 km/h (1 Bft) 100,00 %
07.05.2016 04:36 9,2 C 82 % 1012,7 hPa 0,0 l/m 5,8 km/h (2 Bft) O-NO 65 0 min 0,000 mm 0,0 UV-I 0 W/m 6,3 C 9,2 C 11,3 km/h (2 Bft) 92,59 %
07.05.2016 04:37 9,2 C 82 % 1012,6 hPa 0,0 l/m 6,0 km/h (2 Bft) O-NO 61 0 min 0,000 mm 0,0 UV-I 0 W/m 6,3 C 9,2 C 9,7 km/h (2 Bft) 100,00 %
07.05.2016 04:38 9,2 C 82 % 1012,6 hPa 0,0 l/m 7,6 km/h (2 Bft) O-NO 70 0 min 0,000 mm 0,0 UV-I 0 W/m 6,3 C 8,3 C 14,5 km/h (3 Bft) 95,83 %
07.05.2016 04:39 9,2 C 82 % 1012,6 hPa 0,0 l/m 9,5 km/h (2 Bft) O-NO 78 0 min 0,000 mm 0,0 UV-I 0 W/m 6,3 C 7,0 C 14,5 km/h (3 Bft) 100,00 %
07.05.2016 04:40 9,3 C 82 % 1012,6 hPa 0,0 l/m 6,4 km/h (2 Bft) O 90 0 min 0,000 mm 0,0 UV-I 0 W/m 6,4 C 9,3 C 11,3 km/h (2 Bft) 95,83 %
07.05.2016 04:41 9,3 C 82 % 1012,6 hPa 0,0 l/m 4,9 km/h (1 Bft) O-NO 65 0 min 0,000 mm 0,0 UV-I 0 W/m 6,4 C 9,3 C 8,0 km/h (2 Bft) 100,00 %
07.05.2016 04:42 9,4 C 81 % 1012,6 hPa 0,0 l/m 7,4 km/h (2 Bft) O-NO 71 0 min 0,000 mm 0,0 UV-I 0 W/m 6,3 C 8,7 C 11,3 km/h (2 Bft) 95,83 %
07.05.2016 04:43 9,4 C 81 % 1012,6 hPa 0,0 l/m 4,8 km/h (1 Bft) O-NO 78 0 min 0,000 mm 0,0 UV-I 0 W/m 6,3 C 9,4 C 6,4 km/h (2 Bft) 95,65 %
07.05.2016 04:44 9,5 C 81 % 1012,6 hPa 0,0 l/m 5,9 km/h (2 Bft) O-NO 67 0 min 0,000 mm 0,0 UV-I 0 W/m 6,4 C 9,5 C 6,4 km/h (2 Bft) 100,00 %
07.05.2016 04:45 9,5 C 81 % 1012,6 hPa 0,0 l/m 3,3 km/h (1 Bft) O-SO 103 0 min 0,000 mm 0,0 UV-I 0 W/m 6,4 C 9,5 C 4,8 km/h (1 Bft) 92,86 %
07.05.2016 04:46 9,5 C 81 % 1012,6 hPa 0,0 l/m 4,6 km/h (1 Bft) O-NO 74 0 min 0,000 mm 0,0 UV-I 0 W/m 6,4 C 9,5 C 6,4 km/h (2 Bft) 95,83 %
07.05.2016 04:47 9,5 C 80 % 1012,6 hPa 0,0 l/m 4,0 km/h (1 Bft) O-NO 65 0 min 0,000 mm 0,0 UV-I 0 W/m 6,2 C 9,5 C 4,8 km/h (1 Bft) 96,15 %
07.05.2016 04:48 9,5 C 80 % 1012,7 hPa 0,0 l/m 4,2 km/h (1 Bft) O 90 0 min 0,000 mm 0,0 UV-I 0 W/m 6,2 C 9,5 C 6,4 km/h (2 Bft) 95,83 %
07.05.2016 04:49 9,5 C 80 % 1012,7 hPa 0,0 l/m 4,8 km/h (1 Bft) O 82 0 min 0,000 mm 0,0 UV-I 0 W/m 6,2 C 9,5 C 8,0 km/h (2 Bft) 95,65 %
07.05.2016 04:50 9,4 C 80 % 1012,7 hPa 0,0 l/m 3,2 km/h (1 Bft) O 83 0 min 0,000 mm 0,0 UV-I 0 W/m 6,1 C 9,4 C 4,8 km/h (1 Bft) 100,00 %
07.05.2016 04:51 9,4 C 81 % 1012,6 hPa 0,0 l/m 3,0 km/h (1 Bft) O 83 0 min 0,000 mm 0,0 UV-I 0 W/m 6,3 C 9,4 C 4,8 km/h (1 Bft) 95,83 %
07.05.2016 04:52 9,3 C 81 % 1012,6 hPa 0,0 l/m 2,7 km/h (1 Bft) O 83 0 min 0,000 mm 0,0 UV-I 0 W/m 6,2 C 9,3 C 3,2 km/h (1 Bft) 100,00 %
07.05.2016 04:53 9,2 C 81 % 1012,6 hPa 0,0 l/m 3,0 km/h (1 Bft) O 83 0 min 0,000 mm 0,0 UV-I 0 W/m 6,1 C 9,2 C 3,2 km/h (1 Bft) 95,83 %
07.05.2016 04:54 9,1 C 81 % 1012,6 hPa 0,0 l/m 2,3 km/h (1 Bft) O 83 0 min 0,000 mm 0,0 UV-I 0 W/m 6,0 C 9,1 C 3,2 km/h (1 Bft) 91,30 %
07.05.2016 04:55 8,9 C 81 % 1012,6 hPa 0,0 l/m 2,1 km/h (1 Bft) O 83 0 min 0,000 mm 0,0 UV-I 0 W/m 5,8 C 8,9 C 3,2 km/h (1 Bft) 100,00 %
07.05.2016 04:56 8,8 C 82 % 1012,6 hPa 0,0 l/m 2,4 km/h (1 Bft) O 83 0 min 0,000 mm 0,0 UV-I 0 W/m 5,9 C 8,8 C 3,2 km/h (1 Bft) 91,30 %
07.05.2016 04:57 8,8 C 82 % 1012,6 hPa 0,0 l/m 3,0 km/h (1 Bft) O 82 0 min 0,000 mm 0,0 UV-I 0 W/m 5,9 C 8,8 C 4,8 km/h (1 Bft) 100,00 %
07.05.2016 04:58 8,7 C 83 % 1012,6 hPa 0,0 l/m 3,0 km/h (1 Bft) O 82 0 min 0,000 mm 0,0 UV-I 0 W/m 6,0 C 8,7 C 4,8 km/h (1 Bft) 92,31 %
07.05.2016 04:59 8,7 C 83 % 1012,6 hPa 0,0 l/m 3,1 km/h (1 Bft) O 82 0 min 0,000 mm 0,0 UV-I 0 W/m 6,0 C 8,7 C 4,8 km/h (1 Bft) 100,00 %
07.05.2016 05:00 8,7 C 83 % 1012,6 hPa 0,0 l/m 3,6 km/h (1 Bft) O-NO 69 0 min 0,000 mm 0,0 UV-I 0 W/m 6,0 C 8,7 C 4,8 km/h (1 Bft) 86,96 %
07.05.2016 05:01 8,7 C 83 % 1012,5 hPa 0,0 l/m 3,7 km/h (1 Bft) O-NO 69 0 min 0,000 mm 0,0 UV-I 0 W/m 6,0 C 8,7 C 4,8 km/h (1 Bft) 91,67 %
07.05.2016 05:02 8,8 C 83 % 1012,5 hPa 0,0 l/m 4,3 km/h (1 Bft) O-NO 65 0 min 0,000 mm 0,0 UV-I 0 W/m 6,1 C 8,8 C 6,4 km/h (2 Bft) 100,00 %
07.05.2016 05:03 8,8 C 83 % 1012,5 hPa 0,0 l/m 4,2 km/h (1 Bft) O-NO 65 0 min 0,000 mm 0,0 UV-I 0 W/m 6,1 C 8,8 C 6,4 km/h (2 Bft) 95,83 %
07.05.2016 05:04 8,8 C 83 % 1012,5 hPa 0,0 l/m 4,4 km/h (1 Bft) O-NO 63 0 min 0,000 mm 0,0 UV-I 0 W/m 6,1 C 8,8 C 6,4 km/h (2 Bft) 95,65 %
07.05.2016 05:05 8,8 C 83 % 1012,5 hPa 0,0 l/m 4,0 km/h (1 Bft) O-NO 66 0 min 0,000 mm 0,0 UV-I 0 W/m 6,1 C 8,8 C 4,8 km/h (1 Bft) 95,83 %
07.05.2016 05:06 8,9 C 83 % 1012,5 hPa 0,0 l/m 4,1 km/h (1 Bft) O-NO 69 0 min 0,000 mm 0,0 UV-I 0 W/m 6,2 C 8,9 C 6,4 km/h (2 Bft) 100,00 %
07.05.2016 05:07 8,9 C 83 % 1012,5 hPa 0,0 l/m 4,5 km/h (1 Bft) O-NO 78 0 min 0,000 mm 0,0 UV-I 0 W/m 6,2 C 8,9 C 4,8 km/h (1 Bft) 91,67 %
07.05.2016 05:08 8,9 C 83 % 1012,5 hPa 0,0 l/m 4,3 km/h (1 Bft) O-NO 78 0 min 0,000 mm 0,0 UV-I 0 W/m 6,2 C 8,9 C 4,8 km/h (1 Bft) 100,00 %
07.05.2016 05:09 9,0 C 83 % 1012,5 hPa 0,0 l/m 4,7 km/h (1 Bft) O-NO 78 0 min 0,000 mm 0,0 UV-I 0 W/m 6,3 C 9,0 C 6,4 km/h (2 Bft) 91,67 %
07.05.2016 05:10 9,0 C 83 % 1012,6 hPa 0,0 l/m 3,1 km/h (1 Bft) O-NO 78 0 min 0,000 mm 0,0 UV-I 0 W/m 6,3 C 9,0 C 4,8 km/h (1 Bft) 100,00 %
07.05.2016 05:11 9,1 C 82 % 1012,5 hPa 0,0 l/m 3,8 km/h (1 Bft) O-NO 78 0 min 0,000 mm 0,0 UV-I 0 W/m 6,2 C 9,1 C 4,8 km/h (1 Bft) 96,15 %
07.05.2016 05:12 9,1 C 82 % 1012,5 hPa 0,0 l/m 3,4 km/h (1 Bft) O-NO 78 0 min 0,000 mm 0,0 UV-I 0 W/m 6,2 C 9,1 C 4,8 km/h (1 Bft) 100,00 %
07.05.2016 05:13 9,1 C 82 % 1012,6 hPa 0,0 l/m 2,1 km/h (1 Bft) O-NO 78 0 min 0,000 mm 0,0 UV-I 0 W/m 6,2 C 9,1 C 3,2 km/h (1 Bft) 95,65 %
07.05.2016 05:14 9,2 C 82 % 1012,6 hPa 0,0 l/m 2,3 km/h (1 Bft) O-NO 78 0 min 0,000 mm 0,0 UV-I 0 W/m 6,3 C 9,2 C 3,2 km/h (1 Bft) 95,83 %
07.05.2016 05:15 9,1 C 82 % 1012,6 hPa 0,0 l/m 2,3 km/h (1 Bft) O-NO 78 0 min 0,000 mm 0,0 UV-I 0 W/m 6,2 C 9,1 C 3,2 km/h (1 Bft) 100,00 %
07.05.2016 05:16 9,1 C 82 % 1012,6 hPa 0,0 l/m 2,6 km/h (1 Bft) O-NO 78 0 min 0,000 mm 0,0 UV-I 0 W/m 6,2 C 9,1 C 4,8 km/h (1 Bft) 95,83 %
07.05.2016 05:17 9,1 C 82 % 1012,6 hPa 0,0 l/m 1,7 km/h (1 Bft) O-NO 78 0 min 0,000 mm 0,0 UV-I 0 W/m 6,2 C 9,1 C 3,2 km/h (1 Bft) 100,00 %
07.05.2016 05:18 9,0 C 82 % 1012,6 hPa 0,0 l/m 1,9 km/h (1 Bft) O-NO 72 0 min 0,000 mm 0,0 UV-I 0 W/m 6,1 C 9,0 C 3,2 km/h (1 Bft) 95,83 %
07.05.2016 05:19 8,9 C 82 % 1012,6 hPa 0,0 l/m 0,4 km/h (0 Bft) O-NO 72 0 min 0,000 mm 0,0 UV-I 0 W/m 6,0 C 8,9 C 1,6 km/h (1 Bft) 100,00 %
07.05.2016 05:20 8,8 C 82 % 1012,6 hPa 0,0 l/m 0,1 km/h (0 Bft) O-NO 72 0 min 0,000 mm 0,0 UV-I 0 W/m 5,9 C 8,8 C 1,6 km/h (1 Bft) 100,00 %
07.05.2016 05:21 8,7 C 82 % 1012,6 hPa 0,0 l/m 0,1 km/h (0 Bft) O-NO 72 0 min 0,000 mm 0,0 UV-I 0 W/m 5,8 C 8,7 C 1,6 km/h (1 Bft) 100,00 %
07.05.2016 05:22 8,6 C 83 % 1012,7 hPa 0,0 l/m 0,5 km/h (0 Bft) O-NO 72 0 min 0,000 mm 0,0 UV-I 0 W/m 5,9 C 8,6 C 1,6 km/h (1 Bft) 100,00 %
07.05.2016 05:23 8,5 C 83 % 1012,7 hPa 0,0 l/m 2,1 km/h (1 Bft) O-NO 68 0 min 0,000 mm 0,0 UV-I 0 W/m 5,8 C 8,5 C 4,8 km/h (1 Bft) 95,65 %
07.05.2016 05:24 8,4 C 84 % 1012,7 hPa 0,0 l/m 3,1 km/h (1 Bft) O-NO 67 0 min 0,000 mm 0,0 UV-I 0 W/m 5,9 C 8,4 C 4,8 km/h (1 Bft) 100,00 %
07.05.2016 05:25 8,3 C 84 % 1012,6 hPa 0,0 l/m 4,6 km/h (1 Bft) O-NO 57 0 min 0,000 mm 0,0 UV-I 0 W/m 5,8 C 8,3 C 4,8 km/h (1 Bft) 95,65 %
07.05.2016 05:26 8,3 C 85 % 1012,6 hPa 0,0 l/m 3,3 km/h (1 Bft) NO 43 0 min 0,000 mm 0,0 UV-I 0 W/m 5,9 C 8,3 C 4,8 km/h (1 Bft) 95,83 %
07.05.2016 05:27 8,3 C 85 % 1012,6 hPa 0,0 l/m 3,2 km/h (1 Bft) O-NO 57 0 min 0,000 mm 0,0 UV-I 0 W/m 5,9 C 8,3 C 4,8 km/h (1 Bft) 100,00 %
07.05.2016 05:28 8,3 C 85 % 1012,6 hPa 0,0 l/m 3,3 km/h (1 Bft) O-NO 57 0 min 0,000 mm 0,0 UV-I 0 W/m 5,9 C 8,3 C 4,8 km/h (1 Bft) 100,00 %
07.05.2016 05:29 8,3 C 85 % 1012,6 hPa 0,0 l/m 2,0 km/h (1 Bft) O-NO 57 0 min 0,000 mm 0,0 UV-I 0 W/m 5,9 C 8,3 C 3,2 km/h (1 Bft) 100,00 %
07.05.2016 05:30 8,3 C 85 % 1012,5 hPa 0,0 l/m 1,6 km/h (1 Bft) O-NO 57 0 min 0,000 mm 0,0 UV-I 0 W/m 5,9 C 8,3 C 1,6 km/h (1 Bft) 100,00 %
07.05.2016 05:31 8,2 C 85 % 1012,5 hPa 0,0 l/m 2,0 km/h (1 Bft) O-NO 57 0 min 0,000 mm 0,0 UV-I 0 W/m 5,8 C 8,2 C 3,2 km/h (1 Bft) 100,00 %
07.05.2016 05:32 8,2 C 85 % 1012,5 hPa 0,0 l/m 1,3 km/h (1 Bft) O-NO 57 0 min 0,000 mm 0,0 UV-I 0 W/m 5,8 C 8,2 C 1,6 km/h (1 Bft) 100,00 %
07.05.2016 05:33 8,2 C 85 % 1012,5 hPa 0,0 l/m 1,9 km/h (1 Bft) O-NO 57 0 min 0,000 mm 0,0 UV-I 2 W/m 5,8 C 8,2 C 3,2 km/h (1 Bft) 100,00 %
07.05.2016 05:34 8,1 C 85 % 1012,6 hPa 0,0 l/m 3,2 km/h (1 Bft) O 86 0 min 0,000 mm 0,0 UV-I 5 W/m 5,7 C 8,1 C 4,8 km/h (1 Bft) 95,65 %
07.05.2016 05:35 8,0 C 85 % 1012,6 hPa 0,0 l/m 3,0 km/h (1 Bft) O 86 0 min 0,000 mm 0,0 UV-I 5 W/m 5,6 C 8,0 C 4,8 km/h (1 Bft) 100,00 %
07.05.2016 05:36 7,9 C 85 % 1012,6 hPa 0,0 l/m 2,7 km/h (1 Bft) O 86 0 min 0,000 mm 0,0 UV-I 5 W/m 5,5 C 7,9 C 4,8 km/h (1 Bft) 100,00 %
07.05.2016 05:37 7,9 C 86 % 1012,6 hPa 0,0 l/m 2,3 km/h (1 Bft) O 86 0 min 0,000 mm 0,0 UV-I 5 W/m 5,7 C 7,9 C 3,2 km/h (1 Bft) 100,00 %
07.05.2016 05:38 7,9 C 87 % 1012,6 hPa 0,0 l/m 2,6 km/h (1 Bft) O 86 0 min 0,000 mm 0,0 UV-I 6 W/m 5,9 C 7,9 C 3,2 km/h (1 Bft) 100,00 %
07.05.2016 05:39 8,0 C 87 % 1012,6 hPa 0,0 l/m 2,7 km/h (1 Bft) O 86 0 min 0,000 mm 0,0 UV-I 7 W/m 6,0 C 8,0 C 3,2 km/h (1 Bft) 95,83 %
07.05.2016 05:40 8,1 C 86 % 1012,6 hPa 0,0 l/m 2,8 km/h (1 Bft) O 82 0 min 0,000 mm 0,0 UV-I 7 W/m 5,9 C 8,1 C 4,8 km/h (1 Bft) 100,00 %
07.05.2016 05:41 8,2 C 86 % 1012,6 hPa 0,0 l/m 2,9 km/h (1 Bft) O-NO 71 0 min 0,000 mm 0,0 UV-I 7 W/m 6,0 C 8,2 C 3,2 km/h (1 Bft) 100,00 %
07.05.2016 05:42 8,2 C 86 % 1012,6 hPa 0,0 l/m 1,4 km/h (1 Bft) O-NO 71 0 min 0,000 mm 0,0 UV-I 7 W/m 6,0 C 8,2 C 3,2 km/h (1 Bft) 95,65 %
07.05.2016 05:43 8,2 C 85 % 1012,6 hPa 0,0 l/m 1,3 km/h (1 Bft) O-NO 71 0 min 0,000 mm 0,0 UV-I 7 W/m 5,8 C 8,2 C 3,2 km/h (1 Bft) 100,00 %
07.05.2016 05:44 8,2 C 85 % 1012,6 hPa 0,0 l/m 1,2 km/h (1 Bft) O-NO 71 0 min 0,000 mm 0,0 UV-I 9 W/m 5,8 C 8,2 C 1,6 km/h (1 Bft) 95,65 %
07.05.2016 05:45 8,2 C 85 % 1012,5 hPa 0,0 l/m 1,3 km/h (1 Bft) O-NO 71 0 min 0,000 mm 0,0 UV-I 9 W/m 5,8 C 8,2 C 1,6 km/h (1 Bft) 100,00 %
07.05.2016 05:46 8,2 C 86 % 1012,6 hPa 0,0 l/m 0,7 km/h (0 Bft) O-NO 71 0 min 0,000 mm 0,0 UV-I 9 W/m 6,0 C 8,2 C 1,6 km/h (1 Bft) 100,00 %
07.05.2016 05:47 8,2 C 86 % 1012,6 hPa 0,0 l/m 0,3 km/h (0 Bft) O-NO 71 1 min 0,000 mm 0,0 UV-I 10 W/m 6,0 C 8,2 C 1,6 km/h (1 Bft) 100,00 %
07.05.2016 05:48 8,1 C 85 % 1012,6 hPa 0,0 l/m 0,0 km/h (0 Bft) O-NO 71 1 min 0,000 mm 0,0 UV-I 11 W/m 5,7 C 8,1 C 0,0 km/h (0 Bft) 100,00 %
07.05.2016 05:49 8,0 C 85 % 1012,6 hPa 0,0 l/m 0,1 km/h (0 Bft) O-NO 71 0 min 0,000 mm 0,0 UV-I 11 W/m 5,6 C 8,0 C 1,6 km/h (1 Bft) 100,00 %
07.05.2016 05:50 7,9 C 85 % 1012,5 hPa 0,0 l/m 0,1 km/h (0 Bft) O-NO 71 0 min 0,000 mm 0,0 UV-I 11 W/m 5,5 C 7,9 C 1,6 km/h (1 Bft) 100,00 %
07.05.2016 05:51 7,8 C 85 % 1012,5 hPa 0,0 l/m 0,5 km/h (0 Bft) O-NO 71 0 min 0,000 mm 0,0 UV-I 11 W/m 5,4 C 7,8 C 1,6 km/h (1 Bft) 95,83 %
07.05.2016 05:52 7,7 C 86 % 1012,5 hPa 0,0 l/m 1,4 km/h (1 Bft) O-NO 71 0 min 0,000 mm 0,0 UV-I 12 W/m 5,5 C 7,7 C 3,2 km/h (1 Bft) 100,00 %
07.05.2016 05:53 7,6 C 86 % 1012,5 hPa 0,0 l/m 1,4 km/h (1 Bft) O-NO 71 0 min 0,000 mm 0,0 UV-I 12 W/m 5,4 C 7,6 C 3,2 km/h (1 Bft) 100,00 %
07.05.2016 05:54 7,5 C 87 % 1012,5 hPa 0,0 l/m 1,3 km/h (1 Bft) O-NO 71 0 min 0,000 mm 0,0 UV-I 12 W/m 5,5 C 7,5 C 3,2 km/h (1 Bft) 100,00 %
07.05.2016 05:55 7,4 C 87 % 1012,6 hPa 0,0 l/m 2,3 km/h (1 Bft) O-NO 71 0 min 0,000 mm 0,0 UV-I 12 W/m 5,4 C 7,4 C 3,2 km/h (1 Bft) 95,65 %
07.05.2016 05:56 7,4 C 87 % 1012,6 hPa 0,0 l/m 3,8 km/h (1 Bft) O-NO 71 0 min 0,000 mm 0,0 UV-I 14 W/m 5,4 C 7,4 C 4,8 km/h (1 Bft) 100,00 %
07.05.2016 05:57 7,5 C 88 % 1012,6 hPa 0,0 l/m 1,7 km/h (1 Bft) O-NO 71 0 min 0,000 mm 0,0 UV-I 14 W/m 5,6 C 7,5 C 3,2 km/h (1 Bft) 100,00 %
07.05.2016 05:58 7,6 C 88 % 1012,6 hPa 0,0 l/m 3,7 km/h (1 Bft) O-NO 66 0 min 0,000 mm 0,0 UV-I 14 W/m 5,7 C 7,6 C 4,8 km/h (1 Bft) 100,00 %
07.05.2016 05:59 7,7 C 88 % 1012,6 hPa 0,0 l/m 3,7 km/h (1 Bft) O-NO 64 0 min 0,000 mm 0,0 UV-I 14 W/m 5,8 C 7,7 C 4,8 km/h (1 Bft) 100,00 %
07.05.2016 06:00 7,8 C 87 % 1012,6 hPa 0,0 l/m 2,8 km/h (1 Bft) O-NO 64 0 min 0,000 mm 0,0 UV-I 16 W/m 5,8 C 7,8 C 3,2 km/h (1 Bft) 100,00 %
07.05.2016 06:01 8,0 C 87 % 1012,7 hPa 0,0 l/m 0,7 km/h (0 Bft) O-NO 64 0 min 0,000 mm 0,0 UV-I 16 W/m 6,0 C 8,0 C 3,2 km/h (1 Bft) 95,65 %
07.05.2016 06:02 8,0 C 86 % 1012,6 hPa 0,0 l/m 0,3 km/h (0 Bft) O-NO 64 0 min 0,000 mm 0,0 UV-I 16 W/m 5,8 C 8,0 C 1,6 km/h (1 Bft) 100,00 %
07.05.2016 06:03 8,0 C 86 % 1012,6 hPa 0,0 l/m 0,5 km/h (0 Bft) O-NO 64 0 min 0,000 mm 0,0 UV-I 17 W/m 5,8 C 8,0 C 1,6 km/h (1 Bft) 100,00 %
07.05.2016 06:04 8,0 C 86 % 1012,6 hPa 0,0 l/m 1,0 km/h (0 Bft) O-NO 64 0 min 0,000 mm 0,0 UV-I 18 W/m 5,8 C 8,0 C 3,2 km/h (1 Bft) 100,00 %
07.05.2016 06:05 8,0 C 86 % 1012,6 hPa 0,0 l/m 2,1 km/h (1 Bft) O-NO 64 0 min 0,000 mm 0,0 UV-I 18 W/m 5,8 C 8,0 C 3,2 km/h (1 Bft) 100,00 %
07.05.2016 06:06 8,0 C 86 % 1012,6 hPa 0,0 l/m 2,6 km/h (1 Bft) O-NO 64 0 min 0,000 mm 0,0 UV-I 18 W/m 5,8 C 8,0 C 3,2 km/h (1 Bft) 95,83 %
07.05.2016 06:07 8,1 C 86 % 1012,6 hPa 0,0 l/m 2,6 km/h (1 Bft) O-NO 64 0 min 0,000 mm 0,0 UV-I 18 W/m 5,9 C 8,1 C 3,2 km/h (1 Bft) 95,65 %
07.05.2016 06:08 8,1 C 86 % 1012,6 hPa 0,0 l/m 2,7 km/h (1 Bft) O-NO 64 0 min 0,000 mm 0,0 UV-I 18 W/m 5,9 C 8,1 C 3,2 km/h (1 Bft) 100,00 %
07.05.2016 06:09 8,2 C 86 % 1012,6 hPa 0,0 l/m 2,6 km/h (1 Bft) O-NO 64 0 min 0,000 mm 0,0 UV-I 19 W/m 6,0 C 8,2 C 3,2 km/h (1 Bft) 95,83 %
07.05.2016 06:10 8,2 C 86 % 1012,6 hPa 0,0 l/m 2,3 km/h (1 Bft) O-NO 64 0 min 0,000 mm 0,0 UV-I 19 W/m 6,0 C 8,2 C 3,2 km/h (1 Bft) 100,00 %
07.05.2016 06:11 8,3 C 86 % 1012,6 hPa 0,0 l/m 3,4 km/h (1 Bft) NO 41 0 min 0,000 mm 0,0 UV-I 19 W/m 6,1 C 8,3 C 6,4 km/h (2 Bft) 95,83 %
07.05.2016 06:12 8,3 C 86 % 1012,6 hPa 0,0 l/m 2,7 km/h (1 Bft) NO 39 0 min 0,000 mm 0,0 UV-I 19 W/m 6,1 C 8,3 C 4,8 km/h (1 Bft) 100,00 %
07.05.2016 06:13 8,3 C 85 % 1012,6 hPa 0,0 l/m 3,2 km/h (1 Bft) NO 39 0 min 0,000 mm 0,0 UV-I 21 W/m 5,9 C 8,3 C 4,8 km/h (1 Bft) 100,00 %
07.05.2016 06:14 8,2 C 85 % 1012,7 hPa 0,0 l/m 3,8 km/h (1 Bft) N-NO 26 0 min 0,000 mm 0,0 UV-I 21 W/m 5,8 C 8,2 C 6,4 km/h (2 Bft) 95,65 %
07.05.2016 06:15 8,2 C 86 % 1012,7 hPa 0,0 l/m 3,6 km/h (1 Bft) N-NO 26 0 min 0,000 mm 0,0 UV-I 21 W/m 6,0 C 8,2 C 6,4 km/h (2 Bft) 100,00 %
07.05.2016 06:16 8,2 C 86 % 1012,7 hPa 0,0 l/m 3,7 km/h (1 Bft) N-NO 28 0 min 0,000 mm 0,0 UV-I 21 W/m 6,0 C 8,2 C 6,4 km/h (2 Bft) 95,65 %
07.05.2016 06:17 8,1 C 86 % 1012,7 hPa 0,0 l/m 3,6 km/h (1 Bft) N-NO 28 0 min 0,000 mm 0,0 UV-I 21 W/m 5,9 C 8,1 C 4,8 km/h (1 Bft) 100,00 %
07.05.2016 06:18 8,1 C 86 % 1012,7 hPa 0,0 l/m 4,3 km/h (1 Bft) NO 38 0 min 0,000 mm 0,0 UV-I 23 W/m 5,9 C 8,1 C 4,8 km/h (1 Bft) 100,00 %
07.05.2016 06:19 8,1 C 86 % 1012,7 hPa 0,0 l/m 4,6 km/h (1 Bft) NO 35 0 min 0,000 mm 0,0 UV-I 23 W/m 5,9 C 8,1 C 8,0 km/h (2 Bft) 100,00 %
07.05.2016 06:20 8,1 C 86 % 1012,7 hPa 0,0 l/m 5,7 km/h (1 Bft) N-NO 13 0 min 0,000 mm 0,0 UV-I 23 W/m 5,9 C 8,1 C 11,3 km/h (2 Bft) 100,00 %
07.05.2016 06:21 8,1 C 86 % 1012,7 hPa 0,0 l/m 6,7 km/h (2 Bft) NO 39 0 min 0,000 mm 0,0 UV-I 23 W/m 5,9 C 7,9 C 9,7 km/h (2 Bft) 100,00 %
07.05.2016 06:22 8,2 C 86 % 1012,7 hPa 0,0 l/m 6,7 km/h (2 Bft) N-NO 26 0 min 0,000 mm 0,0 UV-I 23 W/m 6,0 C 8,0 C 8,0 km/h (2 Bft) 91,30 %
07.05.2016 06:23 8,2 C 86 % 1012,8 hPa 0,0 l/m 6,2 km/h (2 Bft) O-NO 57 0 min 0,000 mm 0,0 UV-I 25 W/m 6,0 C 8,2 C 8,0 km/h (2 Bft) 100,00 %
07.05.2016 06:24 8,2 C 87 % 1012,8 hPa 0,0 l/m 5,3 km/h (1 Bft) NO 54 0 min 0,000 mm 0,0 UV-I 25 W/m 6,2 C 8,2 C 6,4 km/h (2 Bft) 95,65 %
07.05.2016 06:25 8,3 C 86 % 1012,8 hPa 0,0 l/m 5,0 km/h (1 Bft) NO 44 0 min 0,000 mm 0,0 UV-I 25 W/m 6,1 C 8,3 C 8,0 km/h (2 Bft) 100,00 %
07.05.2016 06:26 8,3 C 86 % 1012,8 hPa 0,0 l/m 4,4 km/h (1 Bft) NO 53 0 min 0,000 mm 0,0 UV-I 25 W/m 6,1 C 8,3 C 6,4 km/h (2 Bft) 100,00 %
07.05.2016 06:27 8,4 C 86 % 1012,8 hPa 0,0 l/m 5,5 km/h (1 Bft) O-NO 64 0 min 0,000 mm 0,0 UV-I 26 W/m 6,2 C 8,4 C 8,0 km/h (2 Bft) 100,00 %
07.05.2016 06:28 8,5 C 86 % 1012,8 hPa 0,0 l/m 4,5 km/h (1 Bft) O-NO 67 0 min 0,000 mm 0,0 UV-I 26 W/m 6,3 C 8,5 C 6,4 km/h (2 Bft) 100,00 %
07.05.2016 06:29 8,6 C 86 % 1012,8 hPa 0,0 l/m 4,3 km/h (1 Bft) O-NO 61 0 min 0,000 mm 0,0 UV-I 26 W/m 6,4 C 8,6 C 8,0 km/h (2 Bft) 95,65 %
07.05.2016 06:30 8,6 C 86 % 1012,8 hPa 0,0 l/m 6,8 km/h (2 Bft) O-NO 61 0 min 0,000 mm 0,0 UV-I 26 W/m 6,4 C 8,3 C 9,7 km/h (2 Bft) 100,00 %
07.05.2016 06:31 8,7 C 86 % 1012,8 hPa 0,0 l/m 6,4 km/h (2 Bft) O-NO 58 0 min 0,000 mm 0,0 UV-I 26 W/m 6,5 C 8,7 C 9,7 km/h (2 Bft) 95,65 %
07.05.2016 06:32 8,7 C 86 % 1012,8 hPa 0,0 l/m 8,6 km/h (2 Bft) O-NO 57 0 min 0,000 mm 0,0 UV-I 26 W/m 6,5 C 7,1 C 12,9 km/h (3 Bft) 96,30 %
07.05.2016 06:33 8,8 C 85 % 1012,8 hPa 0,0 l/m 6,4 km/h (2 Bft) O-NO 59 0 min 0,000 mm 0,0 UV-I 27 W/m 6,4 C 8,8 C 9,7 km/h (2 Bft) 100,00 %
07.05.2016 06:34 8,8 C 85 % 1012,8 hPa 0,0 l/m 6,8 km/h (2 Bft) O-NO 59 0 min 0,000 mm 0,0 UV-I 28 W/m 6,4 C 8,5 C 11,3 km/h (2 Bft) 100,00 %
07.05.2016 06:35 8,9 C 85 % 1012,9 hPa 0,0 l/m 7,4 km/h (2 Bft) NO 53 0 min 0,000 mm 0,0 UV-I 28 W/m 6,5 C 8,1 C 9,7 km/h (2 Bft) 100,00 %
07.05.2016 06:36 9,0 C 85 % 1012,8 hPa 0,0 l/m 7,5 km/h (2 Bft) NO 51 0 min 0,000 mm 0,0 UV-I 28 W/m 6,6 C 8,2 C 9,7 km/h (2 Bft) 100,00 %
07.05.2016 06:37 9,1 C 85 % 1012,8 hPa 0,0 l/m 8,2 km/h (2 Bft) O-NO 69 0 min 0,000 mm 0,0 UV-I 28 W/m 6,7 C 7,8 C 9,7 km/h (2 Bft) 100,00 %
07.05.2016 06:38 9,1 C 85 % 1012,8 hPa 0,0 l/m 7,3 km/h (2 Bft) O-NO 59 0 min 0,000 mm 0,0 UV-I 28 W/m 6,7 C 8,4 C 11,3 km/h (2 Bft) 100,00 %
07.05.2016 06:39 9,2 C 84 % 1012,8 hPa 0,0 l/m 8,0 km/h (2 Bft) O-NO 58 0 min 0,000 mm 0,0 UV-I 28 W/m 6,6 C 8,0 C 9,7 km/h (2 Bft) 100,00 %
07.05.2016 06:40 9,2 C 84 % 1012,9 hPa 0,0 l/m 7,6 km/h (2 Bft) NO 46 0 min 0,000 mm 0,0 UV-I 29 W/m 6,6 C 8,3 C 9,7 km/h (2 Bft) 100,00 %
07.05.2016 06:41 9,2 C 84 % 1012,9 hPa 0,0 l/m 8,4 km/h (2 Bft) NO 54 0 min 0,000 mm 0,0 UV-I 30 W/m 6,6 C 7,7 C 11,3 km/h (2 Bft) 100,00 %
07.05.2016 06:42 9,2 C 84 % 1012,9 hPa 0,0 l/m 8,2 km/h (2 Bft) NO 54 0 min 0,000 mm 0,0 UV-I 30 W/m 6,6 C 7,9 C 11,3 km/h (2 Bft) 100,00 %
07.05.2016 06:43 9,2 C 84 % 1012,9 hPa 0,0 l/m 8,5 km/h (2 Bft) O-NO 59 0 min 0,000 mm 0,0 UV-I 30 W/m 6,6 C 7,7 C 12,9 km/h (3 Bft) 100,00 %
07.05.2016 06:44 9,3 C 84 % 1012,9 hPa 0,0 l/m 5,7 km/h (1 Bft) NO 53 0 min 0,000 mm 0,0 UV-I 30 W/m 6,7 C 9,3 C 8,0 km/h (2 Bft) 100,00 %
07.05.2016 06:45 9,3 C 84 % 1012,9 hPa 0,0 l/m 6,6 km/h (2 Bft) O-NO 58 0 min 0,000 mm 0,0 UV-I 30 W/m 6,7 C 9,2 C 8,0 km/h (2 Bft) 100,00 %
07.05.2016 06:46 9,3 C 84 % 1012,9 hPa 0,0 l/m 7,0 km/h (2 Bft) NO 44 0 min 0,000 mm 0,0 UV-I 32 W/m 6,7 C 8,9 C 8,0 km/h (2 Bft) 100,00 %
07.05.2016 06:47 9,3 C 84 % 1012,9 hPa 0,0 l/m 6,0 km/h (2 Bft) O-NO 59 0 min 0,000 mm 0,0 UV-I 53 W/m 6,7 C 9,3 C 8,0 km/h (2 Bft) 95,65 %
07.05.2016 06:48 9,4 C 84 % 1012,9 hPa 0,0 l/m 6,0 km/h (2 Bft) NO 56 0 min 0,000 mm 0,0 UV-I 82 W/m 6,8 C 9,4 C 8,0 km/h (2 Bft) 95,83 %
07.05.2016 06:49 9,4 C 84 % 1012,9 hPa 0,0 l/m 10,5 km/h (2 Bft) O-NO 66 0 min 0,000 mm 0,0 UV-I 93 W/m 6,8 C 6,6 C 14,5 km/h (3 Bft) 91,30 %
07.05.2016 06:50 9,4 C 84 % 1012,9 hPa 0,0 l/m 9,1 km/h (2 Bft) NO 44 0 min 0,000 mm 0,0 UV-I 96 W/m 6,8 C 7,5 C 14,5 km/h (3 Bft) 100,00 %
07.05.2016 06:51 9,5 C 84 % 1012,9 hPa 0,0 l/m 5,9 km/h (2 Bft) O-NO 60 0 min 0,000 mm 0,0 UV-I 99 W/m 6,9 C 9,5 C 8,0 km/h (2 Bft) 100,00 %
07.05.2016 06:52 9,6 C 84 % 1012,9 hPa 0,0 l/m 5,8 km/h (2 Bft) O-NO 67 0 min 0,000 mm 0,0 UV-I 102 W/m 7,0 C 9,6 C 9,7 km/h (2 Bft) 100,00 %
07.05.2016 06:53 9,6 C 84 % 1012,9 hPa 0,0 l/m 9,0 km/h (2 Bft) NO 47 0 min 0,000 mm 0,0 UV-I 105 W/m 7,0 C 7,8 C 11,3 km/h (2 Bft) 95,83 %
07.05.2016 06:54 9,7 C 84 % 1012,9 hPa 0,0 l/m 7,4 km/h (2 Bft) NO 56 0 min 0,000 mm 0,0 UV-I 108 W/m 7,1 C 9,0 C 9,7 km/h (2 Bft) 100,00 %
07.05.2016 06:55 9,7 C 84 % 1012,9 hPa 0,0 l/m 6,4 km/h (2 Bft) NO 37 1 min 0,000 mm 0,0 UV-I 112 W/m 7,1 C 9,7 C 8,0 km/h (2 Bft) 100,00 %
07.05.2016 06:56 9,7 C 83 % 1012,9 hPa 0,0 l/m 6,9 km/h (2 Bft) NO 54 1 min 0,000 mm 0,0 UV-I 114 W/m 7,0 C 9,3 C 8,0 km/h (2 Bft) 95,65 %
07.05.2016 06:57 9,8 C 83 % 1012,9 hPa 0,0 l/m 7,1 km/h (2 Bft) O-NO 57 1 min 0,000 mm 0,0 UV-I 117 W/m 7,1 C 9,3 C 9,7 km/h (2 Bft) 100,00 %
07.05.2016 06:58 9,8 C 83 % 1012,9 hPa 0,0 l/m 11,5 km/h (2 Bft) O-NO 57 1 min 0,000 mm 0,0 UV-I 120 W/m 7,1 C 6,5 C 14,5 km/h (3 Bft) 95,65 %
07.05.2016 06:59 9,9 C 83 % 1012,9 hPa 0,0 l/m 8,7 km/h (2 Bft) O-NO 57 1 min 0,000 mm 0,0 UV-I 123 W/m 7,2 C 8,3 C 12,9 km/h (3 Bft) 100,00 %
07.05.2016 07:00 9,9 C 83 % 1012,9 hPa 0,0 l/m 8,0 km/h (2 Bft) O-NO 65 1 min 0,025 mm 0,0 UV-I 126 W/m 7,2 C 8,7 C 9,7 km/h (2 Bft) 92,86 %
07.05.2016 07:01 9,9 C 83 % 1012,9 hPa 0,0 l/m 9,2 km/h (2 Bft) O-NO 60 1 min 0,000 mm 0,0 UV-I 127 W/m 7,2 C 8,0 C 12,9 km/h (3 Bft) 95,83 %
07.05.2016 07:02 10,0 C 82 % 1013,0 hPa 0,0 l/m 7,6 km/h (2 Bft) NO 44 1 min 0,000 mm 0,0 UV-I 128 W/m 7,1 C 9,1 C 14,5 km/h (3 Bft) 95,65 %
07.05.2016 07:03 10,1 C 82 % 1013,0 hPa 0,0 l/m 6,9 km/h (2 Bft) NO 51 1 min 0,000 mm 0,0 UV-I 128 W/m 7,2 C 9,7 C 9,7 km/h (2 Bft) 100,00 %
07.05.2016 07:04 10,1 C 82 % 1012,9 hPa 0,0 l/m 6,2 km/h (2 Bft) O-NO 57 1 min 0,000 mm 0,0 UV-I 130 W/m 7,2 C 10,1 C 8,0 km/h (2 Bft) 91,30 %
07.05.2016 07:05 10,2 C 82 % 1013,0 hPa 0,0 l/m 8,6 km/h (2 Bft) N-NO 30 1 min 0,000 mm 0,0 UV-I 130 W/m 7,3 C 8,7 C 12,9 km/h (3 Bft) 95,83 %
07.05.2016 07:06 10,2 C 81 % 1012,9 hPa 0,0 l/m 9,3 km/h (2 Bft) N-NO 20 1 min 0,000 mm 0,0 UV-I 132 W/m 7,1 C 8,2 C 14,5 km/h (3 Bft) 100,00 %
07.05.2016 07:07 10,3 C 81 % 1012,9 hPa 0,0 l/m 10,1 km/h (2 Bft) NO 40 1 min 0,000 mm 0,0 UV-I 132 W/m 7,2 C 7,9 C 17,7 km/h (3 Bft) 95,65 %
07.05.2016 07:08 10,3 C 81 % 1012,9 hPa 0,0 l/m 8,0 km/h (2 Bft) NO 55 1 min 0,000 mm 0,0 UV-I 132 W/m 7,2 C 9,2 C 12,9 km/h (3 Bft) 100,00 %
07.05.2016 07:09 10,3 C 81 % 1012,9 hPa 0,0 l/m 10,8 km/h (2 Bft) O-NO 58 1 min 0,000 mm 0,0 UV-I 133 W/m 7,2 C 7,5 C 16,1 km/h (3 Bft) 95,65 %
07.05.2016 07:10 10,4 C 80 % 1012,9 hPa 0,0 l/m 12,9 km/h (3 Bft) NO 56 1 min 0,000 mm 0,0 UV-I 134 W/m 7,1 C 6,5 C 16,1 km/h (3 Bft) 100,00 %
07.05.2016 07:11 10,4 C 80 % 1012,9 hPa 0,0 l/m 12,1 km/h (2 Bft) NO 54 1 min 0,000 mm 0,0 UV-I 135 W/m 7,1 C 6,9 C 16,1 km/h (3 Bft) 95,65 %
07.05.2016 07:12 10,5 C 80 % 1012,9 hPa 0,0 l/m 12,1 km/h (2 Bft) NO 43 1 min 0,000 mm 0,0 UV-I 137 W/m 7,2 C 7,0 C 16,1 km/h (3 Bft) 100,00 %
07.05.2016 07:13 10,5 C 80 % 1012,9 hPa 0,0 l/m 8,9 km/h (2 Bft) NO 56 1 min 0,000 mm 0,0 UV-I 140 W/m 7,2 C 8,8 C 12,9 km/h (3 Bft) 95,65 %
07.05.2016 07:14 10,6 C 80 % 1012,9 hPa 0,0 l/m 11,0 km/h (2 Bft) NO 45 1 min 0,000 mm 0,0 UV-I 146 W/m 7,3 C 7,7 C 14,5 km/h (3 Bft) 95,83 %
07.05.2016 07:15 10,6 C 80 % 1012,9 hPa 0,0 l/m 8,8 km/h (2 Bft) O-NO 60 1 min 0,000 mm 0,0 UV-I 150 W/m 7,3 C 9,0 C 14,5 km/h (3 Bft) 95,65 %
07.05.2016 07:16 10,6 C 80 % 1012,8 hPa 0,0 l/m 8,6 km/h (2 Bft) NO 49 1 min 0,000 mm 0,0 UV-I 156 W/m 7,3 C 9,1 C 12,9 km/h (3 Bft) 91,67 %
07.05.2016 07:17 10,7 C 80 % 1012,9 hPa 0,0 l/m 9,7 km/h (2 Bft) O-NO 64 1 min 0,000 mm 0,0 UV-I 163 W/m 7,4 C 8,5 C 12,9 km/h (3 Bft) 100,00 %
07.05.2016 07:18 10,7 C 80 % 1012,8 hPa 0,0 l/m 7,5 km/h (2 Bft) O 81 1 min 0,000 mm 0,0 UV-I 169 W/m 7,4 C 9,9 C 12,9 km/h (3 Bft) 95,83 %
07.05.2016 07:19 10,8 C 80 % 1012,8 hPa 0,0 l/m 8,3 km/h (2 Bft) O-NO 73 1 min 0,000 mm 0,0 UV-I 176 W/m 7,5 C 9,5 C 12,9 km/h (3 Bft) 100,00 %
07.05.2016 07:20 10,8 C 79 % 1012,8 hPa 0,0 l/m 9,8 km/h (2 Bft) N-NO 29 1 min 0,000 mm 0,0 UV-I 181 W/m 7,3 C 8,6 C 14,5 km/h (3 Bft) 95,83 %
07.05.2016 07:21 10,8 C 80 % 1012,9 hPa 0,0 l/m 7,4 km/h (2 Bft) NO 48 1 min 0,000 mm 0,0 UV-I 188 W/m 7,5 C 10,1 C 9,7 km/h (2 Bft) 91,30 %
07.05.2016 07:22 10,9 C 79 % 1012,8 hPa 0,0 l/m 9,1 km/h (2 Bft) NO 55 1 min 0,000 mm 0,0 UV-I 193 W/m 7,4 C 9,1 C 14,5 km/h (3 Bft) 100,00 %
07.05.2016 07:23 10,9 C 79 % 1012,9 hPa 0,0 l/m 8,1 km/h (2 Bft) NO 52 1 min 0,000 mm 0,0 UV-I 200 W/m 7,4 C 9,7 C 14,5 km/h (3 Bft) 95,65 %
07.05.2016 07:24 10,9 C 79 % 1012,8 hPa 0,0 l/m 11,3 km/h (2 Bft) O-NO 67 1 min 0,000 mm 0,0 UV-I 205 W/m 7,4 C 7,9 C 14,5 km/h (3 Bft) 100,00 %
07.05.2016 07:25 11,0 C 79 % 1012,8 hPa 0,0 l/m 10,8 km/h (2 Bft) NO 53 1 min 0,000 mm 0,0 UV-I 208 W/m 7,5 C 8,3 C 16,1 km/h (3 Bft) 91,67 %
07.05.2016 07:26 11,1 C 79 % 1012,9 hPa 0,0 l/m 10,5 km/h (2 Bft) NO 53 1 min 0,000 mm 0,0 UV-I 210 W/m 7,6 C 8,5 C 14,5 km/h (3 Bft) 100,00 %
07.05.2016 07:27 11,1 C 79 % 1012,9 hPa 0,0 l/m 12,5 km/h (3 Bft) O-NO 65 1 min 0,000 mm 0,0 UV-I 213 W/m 7,6 C 7,5 C 17,7 km/h (3 Bft) 95,83 %
07.05.2016 07:28 11,2 C 79 % 1012,9 hPa 0,0 l/m 11,6 km/h (2 Bft) NO 54 1 min 0,000 mm 0,0 UV-I 216 W/m 7,7 C 8,1 C 17,7 km/h (3 Bft) 95,65 %
07.05.2016 07:29 11,2 C 79 % 1012,9 hPa 0,0 l/m 10,9 km/h (2 Bft) O-NO 58 1 min 0,000 mm 0,0 UV-I 218 W/m 7,7 C 8,4 C 16,1 km/h (3 Bft) 95,83 %
07.05.2016 07:30 11,2 C 78 % 1012,9 hPa 0,0 l/m 13,1 km/h (3 Bft) O-NO 61 1 min 0,000 mm 0,0 UV-I 220 W/m 7,5 C 7,4 C 19,3 km/h (3 Bft) 95,65 %
07.05.2016 07:31 11,3 C 78 % 1012,9 hPa 0,0 l/m 11,3 km/h (2 Bft) O-NO 59 1 min 0,000 mm 0,0 UV-I 222 W/m 7,6 C 8,4 C 16,1 km/h (3 Bft) 100,00 %
07.05.2016 07:32 11,3 C 78 % 1012,9 hPa 0,0 l/m 12,4 km/h (3 Bft) O-NO 69 1 min 0,000 mm 0,0 UV-I 226 W/m 7,6 C 7,8 C 16,1 km/h (3 Bft) 95,65 %
07.05.2016 07:33 11,3 C 77 % 1012,9 hPa 0,0 l/m 12,3 km/h (3 Bft) NO 49 1 min 0,000 mm 0,0 UV-I 229 W/m 7,4 C 7,9 C 16,1 km/h (3 Bft) 100,00 %
07.05.2016 07:34 11,4 C 77 % 1012,9 hPa 0,0 l/m 9,2 km/h (2 Bft) NO 53 1 min 0,000 mm 0,0 UV-I 232 W/m 7,5 C 9,6 C 16,1 km/h (3 Bft) 100,00 %
07.05.2016 07:35 11,4 C 77 % 1012,9 hPa 0,0 l/m 13,0 km/h (3 Bft) NO 51 1 min 0,000 mm 0,0 UV-I 236 W/m 7,5 C 7,7 C 17,7 km/h (3 Bft) 100,00 %
07.05.2016 07:36 11,4 C 77 % 1012,9 hPa 0,0 l/m 12,0 km/h (2 Bft) O-NO 62 1 min 0,000 mm 0,0 UV-I 238 W/m 7,5 C 8,1 C 17,7 km/h (3 Bft) 100,00 %
07.05.2016 07:37 11,5 C 77 % 1012,9 hPa 0,0 l/m 12,4 km/h (3 Bft) O-NO 73 1 min 0,000 mm 0,0 UV-I 241 W/m 7,6 C 8,1 C 16,1 km/h (3 Bft) 100,00 %
07.05.2016 07:38 11,6 C 77 % 1012,9 hPa 0,0 l/m 11,9 km/h (2 Bft) NO 50 1 min 0,000 mm 0,2 UV-I 244 W/m 7,7 C 8,4 C 16,1 km/h (3 Bft) 95,65 %
07.05.2016 07:39 11,6 C 77 % 1012,9 hPa 0,0 l/m 10,4 km/h (2 Bft) NO 54 1 min 0,000 mm 0,5 UV-I 247 W/m 7,7 C 9,1 C 14,5 km/h (3 Bft) 95,83 %
07.05.2016 07:40 11,6 C 77 % 1012,9 hPa 0,0 l/m 9,7 km/h (2 Bft) NO 52 1 min 0,000 mm 0,5 UV-I 250 W/m 7,7 C 9,5 C 14,5 km/h (3 Bft) 95,65 %
07.05.2016 07:41 11,7 C 77 % 1012,9 hPa 0,0 l/m 10,8 km/h (2 Bft) NO 44 1 min 0,000 mm 0,5 UV-I 254 W/m 7,8 C 9,1 C 16,1 km/h (3 Bft) 100,00 %
07.05.2016 07:42 11,7 C 77 % 1012,8 hPa 0,0 l/m 10,3 km/h (2 Bft) O 88 1 min 0,000 mm 0,5 UV-I 256 W/m 7,8 C 9,3 C 16,1 km/h (3 Bft) 95,65 %
07.05.2016 07:43 11,7 C 76 % 1012,8 hPa 0,0 l/m 10,8 km/h (2 Bft) O-NO 63 1 min 0,000 mm 0,5 UV-I 259 W/m 7,6 C 9,1 C 16,1 km/h (3 Bft) 100,00 %
07.05.2016 07:44 11,8 C 76 % 1012,8 hPa 0,0 l/m 11,0 km/h (2 Bft) O 87 1 min 0,000 mm 0,5 UV-I 261 W/m 7,7 C 9,1 C 14,5 km/h (3 Bft) 98,04 %
07.05.2016 07:45 11,8 C 76 % 1012,8 hPa 0,0 l/m 10,3 km/h (2 Bft) NO 53 1 min 0,000 mm 0,5 UV-I 264 W/m 7,7 C 9,4 C 17,7 km/h (3 Bft) 97,37 %
07.05.2016 07:46 11,8 C 76 % 1012,8 hPa 0,0 l/m 11,3 km/h (2 Bft) NO 42 1 min 0,000 mm 0,5 UV-I 267 W/m 7,7 C 8,9 C 14,5 km/h (3 Bft) 100,00 %
07.05.2016 07:47 11,9 C 76 % 1012,8 hPa 0,0 l/m 13,5 km/h (3 Bft) O 82 1 min 0,000 mm 0,5 UV-I 270 W/m 7,8 C 8,0 C 17,7 km/h (3 Bft) 100,00 %
07.05.2016 07:48 11,9 C 75 % 1012,8 hPa 0,0 l/m 8,4 km/h (2 Bft) O 86 1 min 0,000 mm 0,5 UV-I 271 W/m 7,6 C 10,6 C 12,9 km/h (3 Bft) 100,00 %
07.05.2016 07:49 11,9 C 75 % 1012,8 hPa 0,0 l/m 10,7 km/h (2 Bft) O-NO 71 1 min 0,000 mm 0,5 UV-I 274 W/m 7,6 C 9,3 C 16,1 km/h (3 Bft) 100,00 %
07.05.2016 07:50 12,0 C 74 % 1012,8 hPa 0,0 l/m 14,3 km/h (3 Bft) NO 41 1 min 0,000 mm 0,6 UV-I 277 W/m 7,5 C 7,8 C 19,3 km/h (3 Bft) 100,00 %
07.05.2016 07:51 12,1 C 74 % 1012,8 hPa 0,0 l/m 8,4 km/h (2 Bft) NO 44 1 min 0,000 mm 0,6 UV-I 280 W/m 7,6 C 10,8 C 16,1 km/h (3 Bft) 95,65 %
07.05.2016 07:52 12,1 C 76 % 1012,8 hPa 0,0 l/m 13,4 km/h (3 Bft) O-NO 60 1 min 0,000 mm 0,6 UV-I 283 W/m 8,0 C 8,3 C 16,1 km/h (3 Bft) 100,00 %
07.05.2016 07:53 12,1 C 75 % 1012,8 hPa 0,0 l/m 13,7 km/h (3 Bft) O-NO 63 1 min 0,000 mm 0,6 UV-I 286 W/m 7,8 C 8,2 C 17,7 km/h (3 Bft) 100,00 %
07.05.2016 07:54 12,2 C 74 % 1012,8 hPa 0,0 l/m 11,4 km/h (2 Bft) O-NO 73 1 min 0,000 mm 0,6 UV-I 287 W/m 7,7 C 9,3 C 16,1 km/h (3 Bft) 100,00 %
07.05.2016 07:55 12,2 C 74 % 1012,8 hPa 0,0 l/m 11,4 km/h (2 Bft) NO 43 1 min 0,000 mm 0,6 UV-I 286 W/m 7,7 C 9,3 C 16,1 km/h (3 Bft) 100,00 %
07.05.2016 07:56 12,2 C 74 % 1012,8 hPa 0,0 l/m 11,4 km/h (2 Bft) NO 53 1 min 0,000 mm 0,6 UV-I 284 W/m 7,7 C 9,3 C 16,1 km/h (3 Bft) 100,00 %
07.05.2016 07:57 12,2 C 75 % 1012,8 hPa 0,0 l/m 13,1 km/h (3 Bft) N-NO 23 1 min 0,000 mm 0,6 UV-I 281 W/m 7,9 C 8,6 C 17,7 km/h (3 Bft) 100,00 %
07.05.2016 07:58 12,3 C 74 % 1012,8 hPa 0,0 l/m 13,7 km/h (3 Bft) O-NO 61 1 min 0,000 mm 0,6 UV-I 279 W/m 7,8 C 8,4 C 17,7 km/h (3 Bft) 100,00 %
07.05.2016 07:59 12,3 C 74 % 1012,8 hPa 0,0 l/m 13,0 km/h (3 Bft) O-NO 58 1 min 0,000 mm 0,6 UV-I 277 W/m 7,8 C 8,7 C 16,1 km/h (3 Bft) 100,00 %
07.05.2016 08:00 12,3 C 73 % 1012,8 hPa 0,0 l/m 14,6 km/h (3 Bft) NO 45 1 min 0,127 mm 0,7 UV-I 273 W/m 7,6 C 8,1 C 19,3 km/h (3 Bft) 100,00 %
07.05.2016 08:01 12,3 C 73 % 1012,8 hPa 0,0 l/m 12,8 km/h (3 Bft) NO 48 1 min 0,000 mm 0,7 UV-I 270 W/m 7,6 C 8,8 C 17,7 km/h (3 Bft) 100,00 %
07.05.2016 08:02 12,4 C 72 % 1012,8 hPa 0,0 l/m 15,0 km/h (3 Bft) O-NO 77 1 min 0,000 mm 0,7 UV-I 266 W/m 7,5 C 8,0 C 17,7 km/h (3 Bft) 100,00 %
07.05.2016 08:03 12,4 C 73 % 1012,8 hPa 0,0 l/m 13,0 km/h (3 Bft) NO 36 1 min 0,000 mm 0,7 UV-I 264 W/m 7,7 C 8,8 C 19,3 km/h (3 Bft) 95,65 %
07.05.2016 08:04 12,4 C 74 % 1012,7 hPa 0,0 l/m 10,2 km/h (2 Bft) NO 37 1 min 0,000 mm 0,7 UV-I 262 W/m 7,9 C 10,1 C 14,5 km/h (3 Bft) 100,00 %
07.05.2016 08:05 12,5 C 74 % 1012,7 hPa 0,0 l/m 9,3 km/h (2 Bft) NO 46 1 min 0,000 mm 0,7 UV-I 260 W/m 8,0 C 10,7 C 14,5 km/h (3 Bft) 96,15 %
07.05.2016 08:06 12,6 C 74 % 1012,7 hPa 0,0 l/m 11,9 km/h (2 Bft) NO 50 1 min 0,000 mm 0,7 UV-I 261 W/m 8,1 C 9,6 C 16,1 km/h (3 Bft) 95,83 %
07.05.2016 08:07 12,6 C 72 % 1012,7 hPa 0,0 l/m 13,6 km/h (3 Bft) O-NO 65 1 min 0,000 mm 0,7 UV-I 263 W/m 7,7 C 8,8 C 17,7 km/h (3 Bft) 100,00 %
07.05.2016 08:08 12,6 C 72 % 1012,8 hPa 0,0 l/m 10,3 km/h (2 Bft) N-NO 21 1 min 0,000 mm 0,8 UV-I 265 W/m 7,7 C 10,3 C 14,5 km/h (3 Bft) 95,65 %
07.05.2016 08:09 12,7 C 73 % 1012,8 hPa 0,0 l/m 12,9 km/h (3 Bft) N-NO 27 1 min 0,000 mm 0,8 UV-I 269 W/m 8,0 C 9,2 C 17,7 km/h (3 Bft) 100,00 %
07.05.2016 08:10 12,7 C 73 % 1012,8 hPa 0,0 l/m 10,6 km/h (2 Bft) NO 56 1 min 0,000 mm 0,8 UV-I 273 W/m 8,0 C 10,3 C 16,1 km/h (3 Bft) 100,00 %
07.05.2016 08:11 12,7 C 73 % 1012,8 hPa 0,0 l/m 14,7 km/h (3 Bft) O-NO 63 1 min 0,000 mm 0,8 UV-I 281 W/m 8,0 C 8,5 C 19,3 km/h (3 Bft) 100,00 %
07.05.2016 08:12 12,7 C 73 % 1012,8 hPa 0,0 l/m 14,6 km/h (3 Bft) NO 49 1 min 0,000 mm 0,8 UV-I 290 W/m 8,0 C 8,6 C 19,3 km/h (3 Bft) 95,65 %
07.05.2016 08:13 12,7 C 73 % 1012,8 hPa 0,0 l/m 12,9 km/h (3 Bft) NO 41 1 min 0,000 mm 0,8 UV-I 300 W/m 8,0 C 9,2 C 16,1 km/h (3 Bft) 95,83 %
07.05.2016 08:14 12,8 C 73 % 1012,8 hPa 0,0 l/m 11,5 km/h (2 Bft) O-NO 65 1 min 0,000 mm 0,8 UV-I 313 W/m 8,1 C 10,0 C 16,1 km/h (3 Bft) 100,00 %
07.05.2016 08:15 12,8 C 72 % 1012,7 hPa 0,0 l/m 17,8 km/h (3 Bft) NO 51 1 min 0,000 mm 0,8 UV-I 325 W/m 7,9 C 7,6 C 22,5 km/h (4 Bft) 100,00 %
07.05.2016 08:16 12,8 C 71 % 1012,8 hPa 0,0 l/m 16,9 km/h (3 Bft) NO 56 1 min 0,000 mm 0,8 UV-I 336 W/m 7,7 C 7,9 C 19,3 km/h (3 Bft) 100,00 %
07.05.2016 08:17 12,8 C 71 % 1012,8 hPa 0,0 l/m 15,4 km/h (3 Bft) NO 45 1 min 0,000 mm 0,8 UV-I 346 W/m 7,7 C 8,4 C 19,3 km/h (3 Bft) 100,00 %
07.05.2016 08:18 12,8 C 71 % 1012,8 hPa 0,0 l/m 14,3 km/h (3 Bft) NO 39 1 min 0,000 mm 0,9 UV-I 352 W/m 7,7 C 8,8 C 20,9 km/h (4 Bft) 95,65 %
07.05.2016 08:19 12,8 C 71 % 1012,8 hPa 0,0 l/m 14,9 km/h (3 Bft) O 88 1 min 0,000 mm 0,9 UV-I 358 W/m 7,7 C 8,6 C 19,3 km/h (3 Bft) 100,00 %
07.05.2016 08:20 12,9 C 71 % 1012,8 hPa 0,0 l/m 18,2 km/h (3 Bft) O-NO 57 1 min 0,000 mm 0,9 UV-I 363 W/m 7,8 C 7,6 C 24,1 km/h (4 Bft) 100,00 %
07.05.2016 08:21 12,9 C 70 % 1012,9 hPa 0,0 l/m 17,2 km/h (3 Bft) O 81 1 min 0,000 mm 0,9 UV-I 367 W/m 7,6 C 7,9 C 22,5 km/h (4 Bft) 100,00 %
07.05.2016 08:22 12,9 C 71 % 1012,9 hPa 0,0 l/m 14,0 km/h (3 Bft) O-NO 69 1 min 0,000 mm 0,9 UV-I 370 W/m 7,8 C 9,0 C 17,7 km/h (3 Bft) 100,00 %
07.05.2016 08:23 12,9 C 71 % 1012,9 hPa 0,0 l/m 10,5 km/h (2 Bft) NO 38 1 min 0,000 mm 0,9 UV-I 372 W/m 7,8 C 10,5 C 19,3 km/h (3 Bft) 96,15 %
07.05.2016 08:24 13,0 C 73 % 1012,9 hPa 0,0 l/m 12,7 km/h (3 Bft) NO 50 1 min 0,000 mm 0,9 UV-I 374 W/m 8,3 C 9,7 C 19,3 km/h (3 Bft) 100,00 %
07.05.2016 08:25 13,1 C 72 % 1012,9 hPa 0,0 l/m 11,4 km/h (2 Bft) O-NO 68 1 min 0,000 mm 1,0 UV-I 376 W/m 8,2 C 10,4 C 16,1 km/h (3 Bft) 100,00 %
07.05.2016 08:26 13,2 C 72 % 1012,9 hPa 0,0 l/m 12,3 km/h (3 Bft) NO 50 1 min 0,000 mm 1,0 UV-I 378 W/m 8,3 C 10,1 C 16,1 km/h (3 Bft) 100,00 %
07.05.2016 08:27 13,2 C 72 % 1012,8 hPa 0,0 l/m 12,9 km/h (3 Bft) NO 46 1 min 0,000 mm 1,0 UV-I 378 W/m 8,3 C 9,8 C 16,1 km/h (3 Bft) 100,00 %
07.05.2016 08:28 13,3 C 71 % 1012,9 hPa 0,0 l/m 15,2 km/h (3 Bft) O 98 1 min 0,000 mm 1,0 UV-I 380 W/m 8,2 C 9,1 C 19,3 km/h (3 Bft) 100,00 %
07.05.2016 08:29 13,3 C 71 % 1012,8 hPa 0,0 l/m 12,6 km/h (3 Bft) NO 55 1 min 0,000 mm 1,0 UV-I 380 W/m 8,2 C 10,1 C 19,3 km/h (3 Bft) 100,00 %
07.05.2016 08:30 13,3 C 70 % 1012,9 hPa 0,0 l/m 13,2 km/h (3 Bft) O-NO 67 1 min 0,000 mm 1,0 UV-I 380 W/m 7,9 C 9,8 C 19,3 km/h (3 Bft) 100,00 %
07.05.2016 08:31 13,4 C 70 % 1012,9 hPa 0,0 l/m 15,0 km/h (3 Bft) O-NO 66 1 min 0,000 mm 1,0 UV-I 379 W/m 8,0 C 9,3 C 19,3 km/h (3 Bft) 100,00 %
07.05.2016 08:32 13,4 C 70 % 1012,9 hPa 0,0 l/m 15,9 km/h (3 Bft) O-NO 68 1 min 0,000 mm 1,0 UV-I 376 W/m 8,0 C 8,9 C 19,3 km/h (3 Bft) 100,00 %
07.05.2016 08:33 13,4 C 70 % 1012,9 hPa 0,0 l/m 15,8 km/h (3 Bft) O-NO 71 1 min 0,000 mm 1,1 UV-I 374 W/m 8,0 C 9,0 C 20,9 km/h (4 Bft) 100,00 %
07.05.2016 08:34 13,4 C 70 % 1012,9 hPa 0,0 l/m 13,9 km/h (3 Bft) O-NO 63 1 min 0,000 mm 1,1 UV-I 374 W/m 8,0 C 9,7 C 17,7 km/h (3 Bft) 100,00 %
07.05.2016 08:35 13,5 C 70 % 1012,9 hPa 0,0 l/m 16,3 km/h (3 Bft) O-NO 69 1 min 0,000 mm 1,1 UV-I 374 W/m 8,1 C 8,9 C 20,9 km/h (4 Bft) 100,00 %
07.05.2016 08:36 13,6 C 70 % 1012,9 hPa 0,0 l/m 11,3 km/h (2 Bft) O-NO 77 1 min 0,000 mm 1,1 UV-I 372 W/m 8,2 C 11,0 C 16,1 km/h (3 Bft) 95,83 %
07.05.2016 08:37 13,6 C 70 % 1012,9 hPa 0,0 l/m 9,5 km/h (2 Bft) O-NO 57 1 min 0,000 mm 1,1 UV-I 368 W/m 8,2 C 11,8 C 12,9 km/h (3 Bft) 100,00 %
07.05.2016 08:38 13,7 C 71 % 1012,9 hPa 0,0 l/m 10,9 km/h (2 Bft) O-NO 63 1 min 0,000 mm 1,1 UV-I 362 W/m 8,5 C 11,3 C 16,1 km/h (3 Bft) 100,00 %
07.05.2016 08:39 13,8 C 70 % 1012,9 hPa 0,0 l/m 13,8 km/h (3 Bft) O-NO 65 1 min 0,000 mm 1,1 UV-I 354 W/m 8,4 C 10,2 C 17,7 km/h (3 Bft) 95,65 %
07.05.2016 08:40 13,8 C 70 % 1012,9 hPa 0,0 l/m 13,5 km/h (3 Bft) NO 49 1 min 0,000 mm 1,2 UV-I 343 W/m 8,4 C 10,3 C 17,7 km/h (3 Bft) 100,00 %
07.05.2016 08:41 13,9 C 69 % 1012,9 hPa 0,0 l/m 17,0 km/h (3 Bft) NO 37 1 min 0,000 mm 1,2 UV-I 335 W/m 8,3 C 9,2 C 24,1 km/h (4 Bft) 100,00 %
07.05.2016 08:42 13,9 C 69 % 1012,9 hPa 0,0 l/m 13,9 km/h (3 Bft) O-NO 59 1 min 0,000 mm 1,2 UV-I 325 W/m 8,3 C 10,3 C 17,7 km/h (3 Bft) 100,00 %
07.05.2016 08:43 13,9 C 70 % 1012,9 hPa 0,0 l/m 11,9 km/h (2 Bft) NO 36 1 min 0,000 mm 1,2 UV-I 315 W/m 8,5 C 11,0 C 19,3 km/h (3 Bft) 100,00 %
07.05.2016 08:44 14,0 C 72 % 1012,9 hPa 0,0 l/m 17,8 km/h (3 Bft) O 86 1 min 0,000 mm 1,2 UV-I 306 W/m 9,0 C 9,1 C 25,7 km/h (4 Bft) 100,00 %
07.05.2016 08:45 14,1 C 68 % 1012,9 hPa 0,0 l/m 17,8 km/h (3 Bft) NO 54 1 min 0,000 mm 1,2 UV-I 296 W/m 8,3 C 9,2 C 22,5 km/h (4 Bft) 100,00 %
07.05.2016 08:46 14,1 C 68 % 1012,9 hPa 0,0 l/m 12,5 km/h (3 Bft) NO 42 1 min 0,000 mm 1,2 UV-I 286 W/m 8,3 C 11,0 C 16,1 km/h (3 Bft) 100,00 %
07.05.2016 08:47 14,1 C 69 % 1012,8 hPa 0,0 l/m 15,1 km/h (3 Bft) O-NO 70 1 min 0,000 mm 1,3 UV-I 278 W/m 8,5 C 10,1 C 27,4 km/h (4 Bft) 100,00 %
07.05.2016 08:48 14,2 C 67 % 1012,8 hPa 0,0 l/m 17,9 km/h (3 Bft) N-NO 30 0 min 0,000 mm 1,3 UV-I 271 W/m 8,2 C 9,3 C 24,1 km/h (4 Bft) 100,00 %
07.05.2016 08:49 14,2 C 67 % 1012,9 hPa 0,0 l/m 19,4 km/h (3 Bft) O 79 0 min 0,000 mm 1,3 UV-I 267 W/m 8,2 C 8,9 C 24,1 km/h (4 Bft) 95,83 %
07.05.2016 08:50 14,2 C 67 % 1012,9 hPa 0,0 l/m 16,9 km/h (3 Bft) O-NO 60 0 min 0,000 mm 1,3 UV-I 271 W/m 8,2 C 9,6 C 22,5 km/h (4 Bft) 100,00 %
07.05.2016 08:51 14,2 C 67 % 1013,0 hPa 0,0 l/m 10,5 km/h (2 Bft) O-NO 61 0 min 0,000 mm 1,3 UV-I 275 W/m 8,2 C 12,0 C 14,5 km/h (3 Bft) 92,59 %
07.05.2016 08:52 14,2 C 68 % 1012,9 hPa 0,0 l/m 15,7 km/h (3 Bft) O-NO 65 1 min 0,000 mm 1,3 UV-I 282 W/m 8,4 C 10,0 C 20,9 km/h (4 Bft) 100,00 %
07.05.2016 08:53 14,2 C 67 % 1012,9 hPa 0,0 l/m 14,2 km/h (3 Bft) O-NO 57 1 min 0,000 mm 1,3 UV-I 291 W/m 8,2 C 10,5 C 17,7 km/h (3 Bft) 95,83 %
07.05.2016 08:54 14,3 C 68 % 1012,9 hPa 0,0 l/m 13,0 km/h (3 Bft) O 84 1 min 0,000 mm 1,3 UV-I 302 W/m 8,5 C 11,1 C 17,7 km/h (3 Bft) 95,65 %
07.05.2016 08:55 14,3 C 68 % 1012,9 hPa 0,0 l/m 14,3 km/h (3 Bft) NO 50 1 min 0,000 mm 1,4 UV-I 314 W/m 8,5 C 10,6 C 17,7 km/h (3 Bft) 95,83 %
07.05.2016 08:56 14,4 C 69 % 1012,8 hPa 0,0 l/m 10,9 km/h (2 Bft) O-NO 66 1 min 0,000 mm 1,4 UV-I 326 W/m 8,8 C 12,0 C 16,1 km/h (3 Bft) 96,15 %
07.05.2016 08:57 14,4 C 68 % 1012,9 hPa 0,0 l/m 11,9 km/h (2 Bft) O-NO 69 1 min 0,000 mm 1,4 UV-I 340 W/m 8,6 C 11,6 C 16,1 km/h (3 Bft) 95,83 %
07.05.2016 08:58 14,4 C 67 % 1012,9 hPa 0,0 l/m 14,2 km/h (3 Bft) O-NO 76 1 min 0,000 mm 1,4 UV-I 352 W/m 8,4 C 10,7 C 20,9 km/h (4 Bft) 86,96 %
07.05.2016 08:59 14,5 C 68 % 1012,9 hPa 0,0 l/m 11,7 km/h (2 Bft) O-NO 61 1 min 0,000 mm 1,4 UV-I 364 W/m 8,7 C 11,8 C 16,1 km/h (3 Bft) 100,00 %
07.05.2016 09:00 14,6 C 68 % 1012,9 hPa 0,0 l/m 15,0 km/h (3 Bft) NO 55 1 min 0,203 mm 1,4 UV-I 377 W/m 8,8 C 10,7 C 17,7 km/h (3 Bft) 95,65 %
07.05.2016 09:01 14,6 C 69 % 1012,9 hPa 0,0 l/m 11,5 km/h (2 Bft) O-NO 64 1 min 0,000 mm 1,5 UV-I 386 W/m 9,0 C 12,0 C 16,1 km/h (3 Bft) 100,00 %
07.05.2016 09:02 14,7 C 68 % 1012,9 hPa 0,0 l/m 10,5 km/h (2 Bft) NO 40 1 min 0,000 mm 1,5 UV-I 396 W/m 8,9 C 12,6 C 14,5 km/h (3 Bft) 95,65 %
07.05.2016 09:03 14,7 C 68 % 1012,9 hPa 0,0 l/m 12,8 km/h (3 Bft) O-NO 74 1 min 0,000 mm 1,5 UV-I 406 W/m 8,9 C 11,6 C 20,9 km/h (4 Bft) 95,83 %
07.05.2016 09:04 14,7 C 67 % 1012,8 hPa 0,0 l/m 20,1 km/h (4 Bft) O-NO 69 1 min 0,000 mm 1,5 UV-I 415 W/m 8,6 C 9,3 C 27,4 km/h (4 Bft) 100,00 %
07.05.2016 09:05 14,8 C 66 % 1012,9 hPa 0,0 l/m 16,9 km/h (3 Bft) N-NO 26 1 min 0,000 mm 1,5 UV-I 424 W/m 8,5 C 10,3 C 22,5 km/h (4 Bft) 95,83 %
07.05.2016 09:06 14,8 C 66 % 1012,9 hPa 0,0 l/m 21,6 km/h (4 Bft) NO 43 1 min 0,000 mm 1,6 UV-I 430 W/m 8,5 C 9,1 C 25,7 km/h (4 Bft) 100,00 %
07.05.2016 09:07 14,8 C 65 % 1012,8 hPa 0,0 l/m 20,5 km/h (4 Bft) NO 40 1 min 0,000 mm 1,6 UV-I 438 W/m 8,3 C 9,4 C 29,0 km/h (5 Bft) 94,29 %
07.05.2016 09:08 14,8 C 65 % 1012,8 hPa 0,0 l/m 22,4 km/h (4 Bft) NO 42 1 min 0,000 mm 1,6 UV-I 446 W/m 8,3 C 8,9 C 27,4 km/h (4 Bft) 93,33 %
07.05.2016 09:09 14,8 C 64 % 1012,8 hPa 0,0 l/m 18,8 km/h (3 Bft) NO 46 1 min 0,000 mm 1,6 UV-I 455 W/m 8,1 C 9,8 C 22,5 km/h (4 Bft) 95,65 %
07.05.2016 09:10 14,8 C 66 % 1012,8 hPa 0,0 l/m 19,1 km/h (3 Bft) O-NO 65 1 min 0,000 mm 1,6 UV-I 462 W/m 8,5 C 9,7 C 24,1 km/h (4 Bft) 100,00 %
07.05.2016 09:11 14,8 C 64 % 1012,8 hPa 0,0 l/m 18,3 km/h (3 Bft) O-NO 78 1 min 0,000 mm 1,6 UV-I 470 W/m 8,1 C 9,9 C 24,1 km/h (4 Bft) 92,31 %
07.05.2016 09:12 14,8 C 65 % 1012,8 hPa 0,0 l/m 15,8 km/h (3 Bft) O-NO 74 1 min 0,000 mm 1,7 UV-I 477 W/m 8,3 C 10,7 C 22,5 km/h (4 Bft) 100,00 %
07.05.2016 09:13 14,8 C 64 % 1012,8 hPa 0,0 l/m 18,0 km/h (3 Bft) O-NO 60 1 min 0,000 mm 1,7 UV-I 484 W/m 8,1 C 10,0 C 22,5 km/h (4 Bft) 91,30 %
07.05.2016 09:14 14,9 C 64 % 1012,8 hPa 0,0 l/m 18,4 km/h (3 Bft) NO 45 1 min 0,000 mm 1,7 UV-I 491 W/m 8,2 C 10,0 C 25,7 km/h (4 Bft) 95,83 %
07.05.2016 09:15 14,9 C 64 % 1012,8 hPa 0,0 l/m 17,2 km/h (3 Bft) NO 37 1 min 0,000 mm 1,7 UV-I 499 W/m 8,2 C 10,4 C 22,5 km/h (4 Bft) 100,00 %
07.05.2016 09:16 14,9 C 65 % 1012,8 hPa 0,0 l/m 17,1 km/h (3 Bft) NO 54 1 min 0,000 mm 1,7 UV-I 505 W/m 8,4 C 10,4 C 22,5 km/h (4 Bft) 95,83 %
07.05.2016 09:17 14,9 C 64 % 1012,8 hPa 0,0 l/m 20,5 km/h (4 Bft) O-NO 59 1 min 0,000 mm 1,7 UV-I 511 W/m 8,2 C 9,5 C 24,1 km/h (4 Bft) 95,65 %
07.05.2016 09:18 14,9 C 64 % 1012,8 hPa 0,0 l/m 17,4 km/h (3 Bft) NO 51 1 min 0,000 mm 1,8 UV-I 516 W/m 8,2 C 10,3 C 24,1 km/h (4 Bft) 95,83 %
07.05.2016 09:19 15,0 C 65 % 1012,8 hPa 0,0 l/m 20,6 km/h (4 Bft) NO 54 1 min 0,000 mm 1,8 UV-I 521 W/m 8,5 C 9,6 C 25,7 km/h (4 Bft) 100,00 %
07.05.2016 09:20 15,0 C 64 % 1012,8 hPa 0,0 l/m 18,1 km/h (3 Bft) O-NO 57 1 min 0,000 mm 1,8 UV-I 525 W/m 8,2 C 10,3 C 25,7 km/h (4 Bft) 95,83 %
07.05.2016 09:21 15,0 C 64 % 1012,8 hPa 0,0 l/m 17,6 km/h (3 Bft) NO 51 1 min 0,000 mm 1,8 UV-I 530 W/m 8,2 C 10,4 C 25,7 km/h (4 Bft) 100,00 %
07.05.2016 09:22 15,1 C 64 % 1012,8 hPa 0,0 l/m 19,4 km/h (3 Bft) NO 45 1 min 0,000 mm 1,8 UV-I 533 W/m 8,3 C 10,0 C 25,7 km/h (4 Bft) 100,00 %
07.05.2016 09:23 15,1 C 64 % 1012,8 hPa 0,0 l/m 22,9 km/h (4 Bft) O-NO 67 1 min 0,000 mm 1,8 UV-I 537 W/m 8,3 C 9,2 C 29,0 km/h (5 Bft) 100,00 %
07.05.2016 09:24 15,1 C 64 % 1012,8 hPa 0,0 l/m 19,6 km/h (3 Bft) O-NO 69 1 min 0,000 mm 1,9 UV-I 541 W/m 8,3 C 10,0 C 24,1 km/h (4 Bft) 96,15 %
07.05.2016 09:25 15,2 C 64 % 1012,7 hPa 0,0 l/m 19,0 km/h (3 Bft) NO 36 1 min 0,000 mm 1,9 UV-I 543 W/m 8,4 C 10,3 C 25,7 km/h (4 Bft) 100,00 %
07.05.2016 09:26 15,2 C 63 % 1012,7 hPa 0,0 l/m 20,4 km/h (4 Bft) NO 49 1 min 0,000 mm 1,9 UV-I 544 W/m 8,2 C 9,9 C 27,4 km/h (4 Bft) 91,30 %
07.05.2016 09:27 15,2 C 63 % 1012,7 hPa 0,0 l/m 18,4 km/h (3 Bft) NO 50 1 min 0,000 mm 1,9 UV-I 547 W/m 8,2 C 10,4 C 22,5 km/h (4 Bft) 96,30 %
07.05.2016 09:28 15,2 C 64 % 1012,7 hPa 0,0 l/m 19,2 km/h (3 Bft) NO 47 1 min 0,000 mm 1,9 UV-I 549 W/m 8,4 C 10,2 C 22,5 km/h (4 Bft) 100,00 %
07.05.2016 09:29 15,2 C 64 % 1012,7 hPa 0,0 l/m 13,9 km/h (3 Bft) NO 55 1 min 0,000 mm 1,9 UV-I 552 W/m 8,4 C 11,8 C 20,9 km/h (4 Bft) 100,00 %
07.05.2016 09:30 15,3 C 63 % 1012,8 hPa 0,0 l/m 18,6 km/h (3 Bft) O-NO 57 1 min 0,000 mm 2,0 UV-I 555 W/m 8,3 C 10,5 C 24,1 km/h (4 Bft) 95,65 %
07.05.2016 09:31 15,3 C 63 % 1012,8 hPa 0,0 l/m 16,4 km/h (3 Bft) NO 55 1 min 0,000 mm 2,0 UV-I 559 W/m 8,3 C 11,1 C 22,5 km/h (4 Bft) 100,00 %
07.05.2016 09:32 15,3 C 64 % 1012,7 hPa 0,0 l/m 17,9 km/h (3 Bft) NO 44 1 min 0,000 mm 2,0 UV-I 561 W/m 8,5 C 10,7 C 22,5 km/h (4 Bft) 100,00 %
07.05.2016 09:33 15,4 C 63 % 1012,7 hPa 0,0 l/m 17,2 km/h (3 Bft) NO 46 1 min 0,000 mm 2,0 UV-I 563 W/m 8,4 C 11,0 C 22,5 km/h (4 Bft) 100,00 %
07.05.2016 09:34 15,4 C 63 % 1012,7 hPa 0,0 l/m 13,9 km/h (3 Bft) NO 55 1 min 0,000 mm 2,0 UV-I 565 W/m 8,4 C 12,0 C 20,9 km/h (4 Bft) 100,00 %
07.05.2016 09:35 15,4 C 63 % 1012,7 hPa 0,0 l/m 14,5 km/h (3 Bft) O-NO 62 1 min 0,000 mm 2,1 UV-I 567 W/m 8,4 C 11,8 C 24,1 km/h (4 Bft) 95,83 %
07.05.2016 09:36 15,6 C 66 % 1012,7 hPa 0,0 l/m 14,5 km/h (3 Bft) NO 51 1 min 0,000 mm 2,1 UV-I 572 W/m 9,3 C 12,1 C 22,5 km/h (4 Bft) 100,00 %
07.05.2016 09:37 15,6 C 66 % 1012,7 hPa 0,0 l/m 15,8 km/h (3 Bft) NO 42 1 min 0,000 mm 2,1 UV-I 573 W/m 9,3 C 11,7 C 22,5 km/h (4 Bft) 100,00 %
07.05.2016 09:38 15,7 C 65 % 1012,7 hPa 0,0 l/m 18,9 km/h (3 Bft) N-NO 30 1 min 0,000 mm 2,1 UV-I 575 W/m 9,1 C 10,9 C 24,1 km/h (4 Bft) 95,65 %
07.05.2016 09:39 15,8 C 65 % 1012,7 hPa 0,0 l/m 14,2 km/h (3 Bft) O-NO 67 1 min 0,000 mm 2,1 UV-I 577 W/m 9,2 C 12,4 C 17,7 km/h (3 Bft) 100,00 %
07.05.2016 09:40 15,8 C 63 % 1012,8 hPa 0,0 l/m 13,1 km/h (3 Bft) NO 42 1 min 0,000 mm 2,2 UV-I 578 W/m 8,8 C 12,8 C 19,3 km/h (3 Bft) 95,65 %
07.05.2016 09:41 15,8 C 63 % 1012,7 hPa 0,0 l/m 15,8 km/h (3 Bft) NO 39 1 min 0,000 mm 2,2 UV-I 582 W/m 8,8 C 11,9 C 22,5 km/h (4 Bft) 100,00 %
07.05.2016 09:42 15,8 C 63 % 1012,8 hPa 0,0 l/m 10,9 km/h (2 Bft) NO 56 1 min 0,000 mm 2,2 UV-I 585 W/m 8,8 C 13,6 C 19,3 km/h (3 Bft) 100,00 %
07.05.2016 09:43 15,9 C 63 % 1012,7 hPa 0,0 l/m 15,4 km/h (3 Bft) O-NO 63 1 min 0,000 mm 2,2 UV-I 589 W/m 8,9 C 12,2 C 22,5 km/h (4 Bft) 100,00 %
07.05.2016 09:44 15,9 C 62 % 1012,7 hPa 0,0 l/m 19,6 km/h (3 Bft) O-NO 65 1 min 0,000 mm 2,2 UV-I 591 W/m 8,6 C 11,0 C 24,1 km/h (4 Bft) 100,00 %
07.05.2016 09:45 15,9 C 61 % 1012,7 hPa 0,0 l/m 17,2 km/h (3 Bft) NO 55 1 min 0,000 mm 2,3 UV-I 593 W/m 8,4 C 11,6 C 22,5 km/h (4 Bft) 100,00 %
07.05.2016 09:46 15,9 C 62 % 1012,7 hPa 0,0 l/m 19,4 km/h (3 Bft) NO 55 1 min 0,000 mm 2,3 UV-I 595 W/m 8,6 C 11,1 C 22,5 km/h (4 Bft) 100,00 %
07.05.2016 09:47 15,9 C 61 % 1012,7 hPa 0,0 l/m 18,7 km/h (3 Bft) O-NO 59 1 min 0,000 mm 2,3 UV-I 597 W/m 8,4 C 11,2 C 24,1 km/h (4 Bft) 100,00 %
07.05.2016 09:48 15,9 C 61 % 1012,7 hPa 0,0 l/m 23,1 km/h (4 Bft) NO 49 1 min 0,000 mm 2,3 UV-I 600 W/m 8,4 C 10,2 C 29,0 km/h (5 Bft) 100,00 %
07.05.2016 09:49 15,9 C 61 % 1012,7 hPa 0,0 l/m 21,3 km/h (4 Bft) NO 48 1 min 0,000 mm 2,3 UV-I 603 W/m 8,4 C 10,6 C 25,7 km/h (4 Bft) 100,00 %
07.05.2016 09:50 15,9 C 61 % 1012,8 hPa 0,0 l/m 18,8 km/h (3 Bft) O-NO 72 1 min 0,000 mm 2,3 UV-I 606 W/m 8,4 C 11,2 C 25,7 km/h (4 Bft) 100,00 %
07.05.2016 09:51 16,0 C 61 % 1012,7 hPa 0,0 l/m 19,7 km/h (3 Bft) NO 47 1 min 0,000 mm 2,4 UV-I 607 W/m 8,5 C 11,1 C 24,1 km/h (4 Bft) 100,00 %
07.05.2016 09:52 16,0 C 61 % 1012,7 hPa 0,0 l/m 18,8 km/h (3 Bft) O-NO 61 1 min 0,000 mm 2,4 UV-I 611 W/m 8,5 C 11,3 C 25,7 km/h (4 Bft) 100,00 %
07.05.2016 09:53 16,1 C 62 % 1012,7 hPa 0,0 l/m 19,1 km/h (3 Bft) O-NO 78 1 min 0,000 mm 2,4 UV-I 613 W/m 8,8 C 11,4 C 22,5 km/h (4 Bft) 100,00 %
07.05.2016 09:54 16,1 C 62 % 1012,8 hPa 0,0 l/m 18,2 km/h (3 Bft) O-NO 69 1 min 0,000 mm 2,4 UV-I 615 W/m 8,8 C 11,6 C 22,5 km/h (4 Bft) 100,00 %
07.05.2016 09:55 16,1 C 60 % 1012,7 hPa 0,0 l/m 19,4 km/h (3 Bft) O-NO 59 1 min 0,000 mm 2,4 UV-I 619 W/m 8,3 C 11,3 C 22,5 km/h (4 Bft) 100,00 %
07.05.2016 09:56 16,1 C 61 % 1012,7 hPa 0,0 l/m 19,5 km/h (3 Bft) O-NO 59 1 min 0,000 mm 2,5 UV-I 621 W/m 8,6 C 11,3 C 25,7 km/h (4 Bft) 100,00 %
07.05.2016 09:57 16,2 C 62 % 1012,7 hPa 0,0 l/m 17,1 km/h (3 Bft) NO 44 1 min 0,000 mm 2,5 UV-I 622 W/m 8,9 C 12,0 C 19,3 km/h (3 Bft) 100,00 %
07.05.2016 09:58 16,2 C 62 % 1012,8 hPa 0,0 l/m 12,8 km/h (3 Bft) O-NO 65 1 min 0,000 mm 2,5 UV-I 624 W/m 8,9 C 13,4 C 19,3 km/h (3 Bft) 100,00 %
07.05.2016 09:59 16,3 C 61 % 1012,7 hPa 0,0 l/m 17,0 km/h (3 Bft) N-NO 33 1 min 0,000 mm 2,5 UV-I 628 W/m 8,8 C 12,2 C 22,5 km/h (4 Bft) 100,00 %
07.05.2016 10:00 16,3 C 61 % 1012,7 hPa 0,0 l/m 20,0 km/h (4 Bft) NO 46 1 min 0,356 mm 2,5 UV-I 631 W/m 8,8 C 11,4 C 27,4 km/h (4 Bft) 100,00 %
07.05.2016 10:01 16,3 C 61 % 1012,7 hPa 0,0 l/m 20,8 km/h (4 Bft) NO 55 1 min 0,000 mm 2,6 UV-I 633 W/m 8,8 C 11,2 C 25,7 km/h (4 Bft) 95,65 %
07.05.2016 10:02 16,4 C 60 % 1012,7 hPa 0,0 l/m 23,4 km/h (4 Bft) O-NO 77 1 min 0,000 mm 2,6 UV-I 634 W/m 8,6 C 10,8 C 32,2 km/h (5 Bft) 100,00 %
07.05.2016 10:03 16,4 C 59 % 1012,7 hPa 0,0 l/m 24,9 km/h (4 Bft) NO 53 1 min 0,000 mm 2,6 UV-I 637 W/m 8,4 C 10,5 C 27,4 km/h (4 Bft) 95,83 %
07.05.2016 10:04 16,4 C 60 % 1012,7 hPa 0,0 l/m 18,6 km/h (3 Bft) NO 38 1 min 0,000 mm 2,6 UV-I 639 W/m 8,6 C 11,9 C 25,7 km/h (4 Bft) 100,00 %
07.05.2016 10:05 16,5 C 62 % 1012,6 hPa 0,0 l/m 23,3 km/h (4 Bft) O-NO 68 1 min 0,000 mm 2,6 UV-I 642 W/m 9,2 C 11,0 C 30,6 km/h (5 Bft) 100,00 %
07.05.2016 10:06 16,6 C 60 % 1012,7 hPa 0,0 l/m 19,9 km/h (4 Bft) NO 48 1 min 0,000 mm 2,7 UV-I 645 W/m 8,8 C 11,8 C 27,4 km/h (4 Bft) 100,00 %
07.05.2016 10:07 16,6 C 60 % 1012,7 hPa 0,0 l/m 16,0 km/h (3 Bft) O-NO 61 1 min 0,000 mm 2,7 UV-I 646 W/m 8,8 C 12,8 C 20,9 km/h (4 Bft) 100,00 %
07.05.2016 10:08 16,6 C 60 % 1012,7 hPa 0,0 l/m 19,2 km/h (3 Bft) O-NO 74 1 min 0,000 mm 2,7 UV-I 649 W/m 8,8 C 12,0 C 25,7 km/h (4 Bft) 100,00 %
07.05.2016 10:09 16,7 C 60 % 1012,7 hPa 0,0 l/m 17,3 km/h (3 Bft) NO 51 1 min 0,000 mm 2,7 UV-I 650 W/m 8,9 C 12,6 C 27,4 km/h (4 Bft) 100,00 %
07.05.2016 10:10 16,7 C 59 % 1012,7 hPa 0,0 l/m 17,8 km/h (3 Bft) NO 46 1 min 0,000 mm 2,7 UV-I 653 W/m 8,6 C 12,5 C 24,1 km/h (4 Bft) 100,00 %
07.05.2016 10:11 16,7 C 59 % 1012,7 hPa 0,0 l/m 18,3 km/h (3 Bft) O-NO 60 1 min 0,000 mm 2,8 UV-I 654 W/m 8,6 C 12,4 C 24,1 km/h (4 Bft) 95,83 %
07.05.2016 10:12 16,7 C 60 % 1012,8 hPa 0,0 l/m 19,3 km/h (3 Bft) NO 47 1 min 0,000 mm 2,8 UV-I 656 W/m 8,9 C 12,1 C 25,7 km/h (4 Bft) 100,00 %
07.05.2016 10:13 16,7 C 60 % 1012,7 hPa 0,0 l/m 18,8 km/h (3 Bft) NO 51 1 min 0,000 mm 2,8 UV-I 658 W/m 8,9 C 12,2 C 24,1 km/h (4 Bft) 100,00 %
07.05.2016 10:14 16,8 C 61 % 1012,7 hPa 0,0 l/m 18,0 km/h (3 Bft) N-NO 24 1 min 0,000 mm 2,8 UV-I 661 W/m 9,2 C 12,6 C 25,7 km/h (4 Bft) 100,00 %
07.05.2016 10:15 16,8 C 61 % 1012,7 hPa 0,0 l/m 16,6 km/h (3 Bft) O-NO 59 1 min 0,000 mm 2,8 UV-I 662 W/m 9,2 C 12,9 C 19,3 km/h (3 Bft) 100,00 %
07.05.2016 10:16 16,9 C 59 % 1012,7 hPa 0,0 l/m 20,2 km/h (4 Bft) O-NO 74 1 min 0,000 mm 2,8 UV-I 663 W/m 8,8 C 12,2 C 24,1 km/h (4 Bft) 100,00 %
07.05.2016 10:17 16,9 C 59 % 1012,7 hPa 0,0 l/m 18,5 km/h (3 Bft) O-NO 67 1 min 0,000 mm 2,9 UV-I 666 W/m 8,8 C 12,6 C 27,4 km/h (4 Bft) 100,00 %
07.05.2016 10:18 16,9 C 60 % 1012,7 hPa 0,0 l/m 19,4 km/h (3 Bft) NO 41 1 min 0,000 mm 2,9 UV-I 668 W/m 9,1 C 12,3 C 22,5 km/h (4 Bft) 95,65 %
07.05.2016 10:19 16,9 C 59 % 1012,7 hPa 0,0 l/m 19,4 km/h (3 Bft) O-NO 59 1 min 0,000 mm 2,9 UV-I 670 W/m 8,8 C 12,3 C 30,6 km/h (5 Bft) 100,00 %
07.05.2016 10:20 16,9 C 58 % 1012,7 hPa 0,0 l/m 19,6 km/h (3 Bft) NO 53 1 min 0,000 mm 2,9 UV-I 673 W/m 8,6 C 12,3 C 24,1 km/h (4 Bft) 100,00 %
07.05.2016 10:21 16,9 C 58 % 1012,7 hPa 0,0 l/m 17,4 km/h (3 Bft) NO 46 1 min 0,000 mm 3,0 UV-I 678 W/m 8,6 C 12,8 C 24,1 km/h (4 Bft) 100,00 %
07.05.2016 10:22 16,9 C 61 % 1012,7 hPa 0,0 l/m 20,0 km/h (4 Bft) O-NO 70 1 min 0,000 mm 3,0 UV-I 679 W/m 9,3 C 12,2 C 27,4 km/h (4 Bft) 100,00 %
07.05.2016 10:23 17,0 C 60 % 1012,6 hPa 0,0 l/m 13,8 km/h (3 Bft) O 80 1 min 0,000 mm 3,0 UV-I 682 W/m 9,2 C 14,0 C 17,7 km/h (3 Bft) 100,00 %
07.05.2016 10:24 17,0 C 60 % 1012,7 hPa 0,0 l/m 12,5 km/h (3 Bft) N 11 1 min 0,000 mm 3,0 UV-I 684 W/m 9,2 C 14,4 C 19,3 km/h (3 Bft) 95,83 %
07.05.2016 10:25 17,1 C 62 % 1012,7 hPa 0,0 l/m 14,2 km/h (3 Bft) NO 40 1 min 0,000 mm 3,1 UV-I 685 W/m 9,8 C 14,0 C 19,3 km/h (3 Bft) 95,65 %
07.05.2016 10:26 17,2 C 61 % 1012,7 hPa 0,0 l/m 13,9 km/h (3 Bft) O-NO 65 1 min 0,000 mm 3,1 UV-I 688 W/m 9,6 C 14,2 C 22,5 km/h (4 Bft) 100,00 %
07.05.2016 10:27 17,2 C 61 % 1012,6 hPa 0,0 l/m 19,1 km/h (3 Bft) O-NO 61 1 min 0,000 mm 3,1 UV-I 690 W/m 9,6 C 12,8 C 24,1 km/h (4 Bft) 100,00 %
07.05.2016 10:28 17,3 C 58 % 1012,7 hPa 0,0 l/m 21,4 km/h (4 Bft) NO 47 1 min 0,000 mm 3,1 UV-I 691 W/m 9,0 C 12,4 C 25,7 km/h (4 Bft) 100,00 %
07.05.2016 10:29 17,3 C 60 % 1012,7 hPa 0,0 l/m 20,5 km/h (4 Bft) NO 53 1 min 0,000 mm 3,1 UV-I 694 W/m 9,5 C 12,6 C 24,1 km/h (4 Bft) 100,00 %
07.05.2016 10:30 17,3 C 59 % 1012,6 hPa 0,0 l/m 18,0 km/h (3 Bft) NO 52 1 min 0,000 mm 3,2 UV-I 694 W/m 9,2 C 13,2 C 22,5 km/h (4 Bft) 100,00 %
07.05.2016 10:31 17,3 C 58 % 1012,7 hPa 0,0 l/m 16,9 km/h (3 Bft) N-NO 26 1 min 0,000 mm 3,2 UV-I 698 W/m 9,0 C 13,5 C 24,1 km/h (4 Bft) 95,65 %
07.05.2016 10:32 17,4 C 61 % 1012,6 hPa 0,0 l/m 19,5 km/h (3 Bft) O-NO 70 1 min 0,000 mm 3,2 UV-I 700 W/m 9,8 C 13,0 C 25,7 km/h (4 Bft) 100,00 %
07.05.2016 10:33 17,4 C 59 % 1012,7 hPa 0,0 l/m 16,7 km/h (3 Bft) O-NO 71 1 min 0,000 mm 3,2 UV-I 702 W/m 9,3 C 13,6 C 22,5 km/h (4 Bft) 100,00 %
07.05.2016 10:34 17,5 C 59 % 1012,7 hPa 0,0 l/m 16,7 km/h (3 Bft) O 80 1 min 0,000 mm 3,3 UV-I 704 W/m 9,4 C 13,8 C 25,7 km/h (4 Bft) 100,00 %
07.05.2016 10:35 17,5 C 58 % 1012,7 hPa 0,0 l/m 21,4 km/h (4 Bft) NO 50 1 min 0,000 mm 3,3 UV-I 705 W/m 9,1 C 12,7 C 27,4 km/h (4 Bft) 96,15 %
07.05.2016 10:36 17,5 C 59 % 1012,6 hPa 0,0 l/m 19,3 km/h (3 Bft) O-NO 71 1 min 0,000 mm 3,3 UV-I 708 W/m 9,4 C 13,1 C 24,1 km/h (4 Bft) 88,89 %
07.05.2016 10:37 17,6 C 59 % 1012,6 hPa 0,0 l/m 17,1 km/h (3 Bft) N-NO 32 1 min 0,000 mm 3,3 UV-I 711 W/m 9,5 C 13,8 C 22,5 km/h (4 Bft) 95,65 %
07.05.2016 10:38 17,6 C 59 % 1012,6 hPa 0,0 l/m 17,2 km/h (3 Bft) NO 51 1 min 0,000 mm 3,3 UV-I 714 W/m 9,5 C 13,8 C 22,5 km/h (4 Bft) 95,83 %
07.05.2016 10:39 17,6 C 57 % 1012,6 hPa 0,0 l/m 20,5 km/h (4 Bft) O-NO 69 1 min 0,000 mm 3,4 UV-I 716 W/m 9,0 C 13,0 C 25,7 km/h (4 Bft) 95,65 %
07.05.2016 10:40 17,6 C 57 % 1012,6 hPa 0,0 l/m 20,8 km/h (4 Bft) O-NO 73 1 min 0,000 mm 3,4 UV-I 718 W/m 9,0 C 12,9 C 27,4 km/h (4 Bft) 95,83 %
07.05.2016 10:41 17,7 C 59 % 1012,6 hPa 0,0 l/m 16,7 km/h (3 Bft) NO 52 1 min 0,000 mm 3,4 UV-I 721 W/m 9,6 C 14,0 C 24,1 km/h (4 Bft) 95,65 %
07.05.2016 10:42 17,7 C 57 % 1012,6 hPa 0,0 l/m 21,3 km/h (4 Bft) O-NO 76 1 min 0,000 mm 3,4 UV-I 722 W/m 9,1 C 13,0 C 27,4 km/h (4 Bft) 100,00 %
07.05.2016 10:43 17,8 C 57 % 1012,6 hPa 0,0 l/m 21,1 km/h (4 Bft) O-NO 74 1 min 0,000 mm 3,4 UV-I 725 W/m 9,2 C 13,1 C 27,4 km/h (4 Bft) 93,33 %
07.05.2016 10:44 17,8 C 58 % 1012,6 hPa 0,0 l/m 21,3 km/h (4 Bft) O-NO 58 1 min 0,000 mm 3,5 UV-I 726 W/m 9,4 C 13,1 C 27,4 km/h (4 Bft) 95,83 %
07.05.2016 10:45 17,8 C 58 % 1012,7 hPa 0,0 l/m 16,1 km/h (3 Bft) NO 55 1 min 0,000 mm 3,5 UV-I 727 W/m 9,4 C 14,3 C 20,9 km/h (4 Bft) 100,00 %
07.05.2016 10:46 17,8 C 58 % 1012,6 hPa 0,0 l/m 14,1 km/h (3 Bft) O-NO 57 1 min 0,000 mm 3,5 UV-I 728 W/m 9,4 C 14,8 C 17,7 km/h (3 Bft) 95,65 %
07.05.2016 10:47 17,9 C 59 % 1012,6 hPa 0,0 l/m 18,0 km/h (3 Bft) O-NO 60 1 min 0,000 mm 3,5 UV-I 729 W/m 9,8 C 13,9 C 25,7 km/h (4 Bft) 100,00 %
07.05.2016 10:48 17,9 C 57 % 1012,6 hPa 0,0 l/m 20,9 km/h (4 Bft) NO 48 1 min 0,000 mm 3,5 UV-I 731 W/m 9,3 C 13,3 C 27,4 km/h (4 Bft) 95,65 %
07.05.2016 10:49 17,9 C 57 % 1012,7 hPa 0,0 l/m 15,6 km/h (3 Bft) N 5 1 min 0,000 mm 3,5 UV-I 731 W/m 9,3 C 14,5 C 24,1 km/h (4 Bft) 96,30 %
07.05.2016 10:50 18,0 C 62 % 1012,7 hPa 0,0 l/m 21,6 km/h (4 Bft) NO 42 1 min 0,000 mm 3,5 UV-I 732 W/m 10,6 C 13,3 C 27,4 km/h (4 Bft) 100,00 %
07.05.2016 10:51 18,1 C 57 % 1012,6 hPa 0,0 l/m 14,8 km/h (3 Bft) O-NO 69 1 min 0,000 mm 3,6 UV-I 736 W/m 9,4 C 15,0 C 24,1 km/h (4 Bft) 95,83 %
07.05.2016 10:52 18,1 C 57 % 1012,6 hPa 0,0 l/m 15,6 km/h (3 Bft) O-NO 68 1 min 0,000 mm 3,6 UV-I 738 W/m 9,4 C 14,8 C 22,5 km/h (4 Bft) 100,00 %
07.05.2016 10:53 18,2 C 56 % 1012,6 hPa 0,0 l/m 18,8 km/h (3 Bft) O 82 1 min 0,000 mm 3,6 UV-I 740 W/m 9,3 C 14,1 C 29,0 km/h (5 Bft) 95,83 %
07.05.2016 10:54 18,2 C 57 % 1012,6 hPa 0,0 l/m 20,5 km/h (4 Bft) O-NO 63 1 min 0,000 mm 3,7 UV-I 740 W/m 9,5 C 13,8 C 27,4 km/h (4 Bft) 95,65 %
07.05.2016 10:55 18,2 C 56 % 1012,6 hPa 0,0 l/m 19,6 km/h (3 Bft) O-NO 63 1 min 0,000 mm 3,7 UV-I 743 W/m 9,3 C 14,0 C 22,5 km/h (4 Bft) 95,83 %
07.05.2016 10:56 18,2 C 58 % 1012,6 hPa 0,0 l/m 22,8 km/h (4 Bft) O-NO 57 1 min 0,000 mm 3,7 UV-I 744 W/m 9,8 C 13,3 C 29,0 km/h (5 Bft) 95,65 %
07.05.2016 10:57 18,2 C 55 % 1012,6 hPa 0,0 l/m 16,6 km/h (3 Bft) NO 49 1 min 0,000 mm 3,7 UV-I 746 W/m 9,0 C 14,7 C 25,7 km/h (4 Bft) 100,00 %
07.05.2016 10:58 18,2 C 58 % 1012,7 hPa 0,0 l/m 12,2 km/h (2 Bft) N-NO 31 1 min 0,000 mm 3,7 UV-I 749 W/m 9,8 C 15,9 C 20,9 km/h (4 Bft) 95,65 %
07.05.2016 10:59 18,3 C 58 % 1012,6 hPa 0,0 l/m 14,1 km/h (3 Bft) O-NO 74 1 min 0,000 mm 3,7 UV-I 749 W/m 9,9 C 15,4 C 22,5 km/h (4 Bft) 100,00 %
07.05.2016 11:00 18,3 C 57 % 1012,6 hPa 0,0 l/m 18,6 km/h (3 Bft) NO 48 1 min 0,482 mm 3,8 UV-I 752 W/m 9,6 C 14,3 C 22,5 km/h (4 Bft) 95,65 %
07.05.2016 11:01 18,3 C 55 % 1012,6 hPa 0,0 l/m 15,5 km/h (3 Bft) O-NO 63 1 min 0,000 mm 3,8 UV-I 753 W/m 9,1 C 15,1 C 20,9 km/h (4 Bft) 100,00 %
07.05.2016 11:02 18,3 C 57 % 1012,6 hPa 0,0 l/m 15,3 km/h (3 Bft) O-NO 69 1 min 0,000 mm 3,8 UV-I 755 W/m 9,6 C 15,1 C 22,5 km/h (4 Bft) 97,14 %
07.05.2016 11:03 18,3 C 57 % 1012,6 hPa 0,0 l/m 20,8 km/h (4 Bft) NO 43 1 min 0,000 mm 3,8 UV-I 754 W/m 9,6 C 13,8 C 25,7 km/h (4 Bft) 83,33 %
07.05.2016 11:04 18,3 C 58 % 1012,6 hPa 0,0 l/m 16,6 km/h (3 Bft) O-NO 57 1 min 0,000 mm 3,8 UV-I 758 W/m 9,9 C 14,8 C 22,5 km/h (4 Bft) 96,30 %
07.05.2016 11:05 18,4 C 56 % 1012,6 hPa 0,0 l/m 20,5 km/h (4 Bft) O-NO 59 1 min 0,000 mm 3,9 UV-I 759 W/m 9,5 C 14,0 C 25,7 km/h (4 Bft) 100,00 %
07.05.2016 11:06 18,4 C 58 % 1012,6 hPa 0,0 l/m 18,5 km/h (3 Bft) O-NO 69 1 min 0,000 mm 3,9 UV-I 760 W/m 10,0 C 14,5 C 22,5 km/h (4 Bft) 95,83 %
07.05.2016 11:07 18,4 C 58 % 1012,6 hPa 0,0 l/m 15,3 km/h (3 Bft) NO 36 1 min 0,000 mm 3,9 UV-I 761 W/m 10,0 C 15,2 C 22,5 km/h (4 Bft) 91,30 %
07.05.2016 11:08 18,4 C 57 % 1012,6 hPa 0,0 l/m 18,5 km/h (3 Bft) O-NO 71 1 min 0,000 mm 3,9 UV-I 763 W/m 9,7 C 14,5 C 27,4 km/h (4 Bft) 100,00 %
07.05.2016 11:09 18,4 C 55 % 1012,5 hPa 0,0 l/m 18,6 km/h (3 Bft) O-NO 57 1 min 0,000 mm 3,9 UV-I 767 W/m 9,2 C 14,4 C 25,7 km/h (4 Bft) 96,15 %
07.05.2016 11:10 18,5 C 54 % 1012,5 hPa 0,0 l/m 17,2 km/h (3 Bft) O-NO 78 1 min 0,000 mm 4,0 UV-I 770 W/m 9,0 C 14,9 C 22,5 km/h (4 Bft) 100,00 %
07.05.2016 11:11 18,5 C 56 % 1012,6 hPa 0,0 l/m 18,7 km/h (3 Bft) O-NO 75 1 min 0,000 mm 4,0 UV-I 770 W/m 9,6 C 14,5 C 22,5 km/h (4 Bft) 100,00 %
07.05.2016 11:12 18,6 C 58 % 1012,6 hPa 0,0 l/m 15,8 km/h (3 Bft) NO 49 1 min 0,000 mm 4,0 UV-I 772 W/m 10,2 C 15,3 C 20,9 km/h (4 Bft) 100,00 %
07.05.2016 11:13 18,7 C 58 % 1012,6 hPa 0,0 l/m 19,7 km/h (3 Bft) O-NO 58 1 min 0,000 mm 4,0 UV-I 772 W/m 10,3 C 14,6 C 27,4 km/h (4 Bft) 100,00 %
07.05.2016 11:14 18,7 C 59 % 1012,6 hPa 0,0 l/m 17,4 km/h (3 Bft) NO 48 1 min 0,000 mm 4,0 UV-I 773 W/m 10,5 C 15,1 C 25,7 km/h (4 Bft) 95,83 %
07.05.2016 11:15 18,8 C 57 % 1012,5 hPa 0,0 l/m 18,9 km/h (3 Bft) O-NO 57 1 min 0,000 mm 4,0 UV-I 774 W/m 10,1 C 14,9 C 24,1 km/h (4 Bft) 100,00 %
07.05.2016 11:16 18,8 C 55 % 1012,5 hPa 0,0 l/m 22,6 km/h (4 Bft) NO 44 1 min 0,000 mm 4,1 UV-I 778 W/m 9,6 C 14,2 C 32,2 km/h (5 Bft) 100,00 %
07.05.2016 11:17 18,8 C 56 % 1012,5 hPa 0,0 l/m 23,1 km/h (4 Bft) NO 48 1 min 0,000 mm 4,1 UV-I 777 W/m 9,8 C 14,1 C 32,2 km/h (5 Bft) 95,65 %
07.05.2016 11:18 18,8 C 56 % 1012,6 hPa 0,0 l/m 19,6 km/h (3 Bft) NO 39 1 min 0,000 mm 4,1 UV-I 780 W/m 9,8 C 14,7 C 25,7 km/h (4 Bft) 100,00 %
07.05.2016 11:19 18,9 C 57 % 1012,5 hPa 0,0 l/m 22,5 km/h (4 Bft) O-NO 69 1 min 0,000 mm 4,1 UV-I 781 W/m 10,2 C 14,3 C 29,0 km/h (5 Bft) 100,00 %
07.05.2016 11:20 18,9 C 55 % 1012,5 hPa 0,0 l/m 24,3 km/h (4 Bft) O-NO 58 1 min 0,000 mm 4,1 UV-I 782 W/m 9,7 C 14,0 C 32,2 km/h (5 Bft) 100,00 %
07.05.2016 11:21 18,8 C 54 % 1012,5 hPa 0,0 l/m 22,7 km/h (4 Bft) O-NO 69 1 min 0,000 mm 4,1 UV-I 782 W/m 9,3 C 14,1 C 29,0 km/h (5 Bft) 95,65 %
07.05.2016 11:22 18,8 C 54 % 1012,5 hPa 0,0 l/m 23,9 km/h (4 Bft) O-NO 59 1 min 0,000 mm 4,1 UV-I 785 W/m 9,3 C 13,9 C 27,4 km/h (4 Bft) 100,00 %
07.05.2016 11:23 18,8 C 54 % 1012,5 hPa 0,0 l/m 25,1 km/h (4 Bft) O-NO 61 1 min 0,000 mm 4,1 UV-I 786 W/m 9,3 C 13,7 C 33,8 km/h (5 Bft) 95,65 %
07.05.2016 11:24 18,8 C 53 % 1012,5 hPa 0,0 l/m 23,7 km/h (4 Bft) O-NO 59 1 min 0,000 mm 4,2 UV-I 787 W/m 9,0 C 14,0 C 29,0 km/h (5 Bft) 95,83 %
07.05.2016 11:25 18,8 C 53 % 1012,5 hPa 0,0 l/m 17,5 km/h (3 Bft) O-NO 59 1 min 0,000 mm 4,2 UV-I 787 W/m 9,0 C 15,2 C 25,7 km/h (4 Bft) 100,00 %
07.05.2016 11:26 18,8 C 56 % 1012,5 hPa 0,0 l/m 22,9 km/h (4 Bft) N 5 1 min 0,000 mm 4,2 UV-I 788 W/m 9,8 C 14,1 C 29,0 km/h (5 Bft) 100,00 %
07.05.2016 11:27 18,8 C 56 % 1012,4 hPa 0,0 l/m 20,9 km/h (4 Bft) O-NO 57 1 min 0,000 mm 4,2 UV-I 790 W/m 9,8 C 14,5 C 27,4 km/h (4 Bft) 100,00 %
07.05.2016 11:28 18,9 C 55 % 1012,5 hPa 0,0 l/m 16,3 km/h (3 Bft) NO 51 1 min 0,000 mm 4,2 UV-I 790 W/m 9,7 C 15,6 C 20,9 km/h (4 Bft) 100,00 %
07.05.2016 11:29 18,9 C 55 % 1012,4 hPa 0,0 l/m 21,7 km/h (4 Bft) NO 43 1 min 0,000 mm 4,3 UV-I 795 W/m 9,7 C 14,5 C 27,4 km/h (4 Bft) 100,00 %
07.05.2016 11:30 18,9 C 53 % 1012,5 hPa 0,0 l/m 19,8 km/h (3 Bft) NO 47 1 min 0,000 mm 4,3 UV-I 796 W/m 9,1 C 14,8 C 27,4 km/h (4 Bft) 100,00 %
07.05.2016 11:31 19,0 C 57 % 1012,5 hPa 0,0 l/m 22,3 km/h (4 Bft) NO 41 1 min 0,000 mm 4,3 UV-I 796 W/m 10,3 C 14,5 C 33,8 km/h (5 Bft) 100,00 %
07.05.2016 11:32 19,1 C 56 % 1012,5 hPa 0,0 l/m 22,6 km/h (4 Bft) NO 35 1 min 0,000 mm 4,3 UV-I 797 W/m 10,1 C 14,6 C 32,2 km/h (5 Bft) 100,00 %
07.05.2016 11:33 19,2 C 58 % 1012,4 hPa 0,0 l/m 17,4 km/h (3 Bft) O-NO 64 1 min 0,000 mm 4,3 UV-I 799 W/m 10,7 C 15,7 C 22,5 km/h (4 Bft) 100,00 %
07.05.2016 11:34 19,2 C 57 % 1012,5 hPa 0,0 l/m 21,2 km/h (4 Bft) O-NO 69 1 min 0,000 mm 4,4 UV-I 802 W/m 10,5 C 14,9 C 29,0 km/h (5 Bft) 100,00 %
07.05.2016 11:35 19,3 C 54 % 1012,5 hPa 0,0 l/m 21,5 km/h (4 Bft) O-NO 68 1 min 0,000 mm 4,4 UV-I 803 W/m 9,8 C 15,0 C 32,2 km/h (5 Bft) 100,00 %
07.05.2016 11:36 19,3 C 52 % 1012,5 hPa 0,0 l/m 25,7 km/h (4 Bft) NO 41 1 min 0,000 mm 4,4 UV-I 804 W/m 9,2 C 14,3 C 30,6 km/h (5 Bft) 100,00 %
07.05.2016 11:37 19,3 C 51 % 1012,5 hPa 0,0 l/m 23,1 km/h (4 Bft) O-NO 78 1 min 0,000 mm 4,4 UV-I 804 W/m 8,9 C 14,7 C 30,6 km/h (5 Bft) 100,00 %
07.05.2016 11:38 19,3 C 54 % 1012,5 hPa 0,0 l/m 17,6 km/h (3 Bft) O-NO 67 1 min 0,000 mm 4,4 UV-I 804 W/m 9,8 C 15,8 C 24,1 km/h (4 Bft) 100,00 %
07.05.2016 11:39 19,3 C 55 % 1012,5 hPa 0,0 l/m 16,6 km/h (3 Bft) NO 36 1 min 0,000 mm 4,4 UV-I 808 W/m 10,0 C 16,0 C 22,5 km/h (4 Bft) 100,00 %
07.05.2016 11:40 19,3 C 54 % 1012,5 hPa 0,0 l/m 17,8 km/h (3 Bft) O-NO 58 1 min 0,000 mm 4,4 UV-I 809 W/m 9,8 C 15,8 C 22,5 km/h (4 Bft) 100,00 %
07.05.2016 11:41 19,3 C 52 % 1012,5 hPa 0,0 l/m 19,8 km/h (3 Bft) O-NO 59 1 min 0,000 mm 4,5 UV-I 809 W/m 9,2 C 15,3 C 25,7 km/h (4 Bft) 100,00 %
07.05.2016 11:42 19,3 C 53 % 1012,5 hPa 0,0 l/m 18,6 km/h (3 Bft) O-NO 63 1 min 0,000 mm 4,5 UV-I 809 W/m 9,5 C 15,6 C 27,4 km/h (4 Bft) 100,00 %
07.05.2016 11:43 19,3 C 55 % 1012,5 hPa 0,0 l/m 19,3 km/h (3 Bft) N-NO 24 1 min 0,000 mm 4,5 UV-I 810 W/m 10,0 C 15,4 C 24,1 km/h (4 Bft) 100,00 %
07.05.2016 11:44 19,4 C 55 % 1012,5 hPa 0,0 l/m 19,5 km/h (3 Bft) NO 53 1 min 0,000 mm 4,5 UV-I 811 W/m 10,1 C 15,5 C 24,1 km/h (4 Bft) 100,00 %
07.05.2016 11:45 19,4 C 54 % 1012,5 hPa 0,0 l/m 13,7 km/h (3 Bft) O 82 1 min 0,000 mm 4,5 UV-I 812 W/m 9,8 C 16,9 C 22,5 km/h (4 Bft) 100,00 %
07.05.2016 11:46 19,4 C 53 % 1012,5 hPa 0,0 l/m 19,7 km/h (3 Bft) O-NO 60 1 min 0,000 mm 4,5 UV-I 814 W/m 9,6 C 15,5 C 27,4 km/h (4 Bft) 100,00 %
07.05.2016 11:47 19,5 C 54 % 1012,6 hPa 0,0 l/m 19,1 km/h (3 Bft) O-NO 59 1 min 0,000 mm 4,5 UV-I 815 W/m 9,9 C 15,7 C 22,5 km/h (4 Bft) 100,00 %
07.05.2016 11:48 19,5 C 53 % 1012,6 hPa 0,0 l/m 19,9 km/h (4 Bft) O-NO 71 1 min 0,000 mm 4,5 UV-I 816 W/m 9,7 C 15,6 C 30,6 km/h (5 Bft) 100,00 %
07.05.2016 11:49 19,6 C 55 % 1012,4 hPa 0,0 l/m 24,1 km/h (4 Bft) NO 53 1 min 0,000 mm 4,5 UV-I 817